Observation data for Menard on 01/13/2021      Previous  Date  Next       Current Mesonet Observations  Soil Data  Daily Summary Page  Observations in Plain Language
KMD1 130600Z 26003KT M03/M03 A3028 RMK A01 T10301032  RH  098%=      5-min Rain = 0
KMD1 130601Z 26004KT M03/M03 A3027 RMK A01 T10301032  RH  098%=      5-min Rain = 0
KMD1 130602Z 27004KT M03/M03 A3027 RMK A01 T10301032  RH  098%=      5-min Rain = 0
KMD1 130603Z 27004KT M03/M03 A3027 RMK A01 T10301032  RH  098%=      5-min Rain = 0
KMD1 130604Z 27004KT M03/M03 A3027 RMK A01 T10301032  RH  098%=      5-min Rain = 0
KMD1 130605Z 27004KT M03/M03 A3027 RMK A01 T10301032  RH  098%=      5-min Rain = 0
KMD1 130606Z 27004KT M03/M03 A3028 RMK A01 T10301032  RH  098%=      5-min Rain = 0
KMD1 130607Z 27004KT M03/M03 A3028 RMK A01 T10301032  RH  098%=      5-min Rain = 0
KMD1 130608Z 27004KT M03/M03 A3028 RMK A01 T10301033  RH  098%=      5-min Rain = 0
KMD1 130609Z 27004KT M03/M03 A3028 RMK A01 T10301033  RH  098%=      5-min Rain = 0
KMD1 130610Z 27004KT M03/M03 A3028 RMK A01 T10301033  RH  098%=      5-min Rain = 0
KMD1 130611Z 27004KT M03/M03 A3028 RMK A01 T10301033  RH  098%=      5-min Rain = 0
KMD1 130612Z 27004KT M03/M03 A3027 RMK A01 T10301033  RH  098%=      5-min Rain = 0
KMD1 130613Z 27004KT M03/M03 A3027 RMK A01 T10301033  RH  098%=      5-min Rain = 0
KMD1 130614Z 27004KT M03/M03 A3027 RMK A01 T10291032  RH  098%=      5-min Rain = 0
KMD1 130615Z 26004KT M03/M03 A3027 RMK A01 T10291031  RH  099%=      5-min Rain = 0
KMD1 130616Z 26004KT M03/M03 A3027 RMK A01 T10281030  RH  099%=      5-min Rain = 0
KMD1 130617Z 26004KT M03/M03 A3027 RMK A01 T10271029  RH  099%=      5-min Rain = 0
KMD1 130618Z 26004KT M03/M03 A3027 RMK A01 T10261028  RH  099%=      5-min Rain = 0
KMD1 130619Z 26004KT M03/M03 A3027 RMK A01 T10261028  RH  099%=      5-min Rain = 0
KMD1 130620Z 26004KT M03/M03 A3027 RMK A01 T10261028  RH  099%=      5-min Rain = 0
KMD1 130621Z 26003KT M03/M03 A3027 RMK A01 T10261029  RH  098%=      5-min Rain = 0
KMD1 130622Z 26003KT M03/M03 A3027 RMK A01 T10271030  RH  098%=      5-min Rain = 0
KMD1 130623Z 26003KT M03/M03 A3027 RMK A01 T10271030  RH  098%=      5-min Rain = 0
KMD1 130624Z 26003KT M03/M03 A3027 RMK A01 T10281031  RH  098%=      5-min Rain = 0
KMD1 130625Z 26004KT M03/M03 A3027 RMK A01 T10291032  RH  098%=      5-min Rain = 0
KMD1 130626Z 26004KT M03/M03 A3027 RMK A01 T10281031  RH  098%=      5-min Rain = 0
KMD1 130627Z 26005KT M03/M03 A3027 RMK A01 T10291032  RH  098%=      5-min Rain = 0
KMD1 130628Z 26005KT M03/M03 A3027 RMK A01 T10291032  RH  098%=      5-min Rain = 0
KMD1 130629Z 26004KT M03/M03 A3027 RMK A01 T10291032  RH  098%=      5-min Rain = 0
KMD1 130630Z 26005KT M03/M03 A3028 RMK A01 T10291032  RH  098%=      5-min Rain = 0
KMD1 130631Z 25004KT M03/M03 A3028 RMK A01 T10291032  RH  098%=      5-min Rain = 0
KMD1 130632Z 25004KT M03/M03 A3027 RMK A01 T10291032  RH  098%=      5-min Rain = 0
KMD1 130633Z 25004KT M03/M03 A3027 RMK A01 T10291032  RH  098%=      5-min Rain = 0
KMD1 130634Z 25004KT M03/M03 A3028 RMK A01 T10291032  RH  098%=      5-min Rain = 0
KMD1 130635Z 25004KT M03/M03 A3028 RMK A01 T10291032  RH  098%=      5-min Rain = 0
KMD1 130636Z 26004KT M03/M03 A3028 RMK A01 T10291032  RH  098%=      5-min Rain = 0
KMD1 130637Z 25003KT M03/M03 A3028 RMK A01 T10291032  RH  098%=      5-min Rain = 0
KMD1 130638Z 25003KT M03/M03 A3028 RMK A01 T10291032  RH  098%=      5-min Rain = 0
KMD1 130639Z 25003KT M03/M03 A3027 RMK A01 T10291032  RH  098%=      5-min Rain = 0
KMD1 130640Z 25003KT M03/M03 A3027 RMK A01 T10291032  RH  098%=      5-min Rain = 0
KMD1 130641Z 24003KT M03/M03 A3027 RMK A01 T10301033  RH  098%=      5-min Rain = 0
KMD1 130642Z 24003KT M03/M03 A3027 RMK A01 T10301033  RH  098%=      5-min Rain = 0
KMD1 130643Z 23003KT M03/M03 A3027 RMK A01 T10301033  RH  098%=      5-min Rain = 0
KMD1 130644Z 23003KT M03/M03 A3027 RMK A01 T10301033  RH  098%=      5-min Rain = 0
KMD1 130645Z 23003KT M03/M03 A3028 RMK A01 T10301034  RH  098%=      5-min Rain = 0
KMD1 130646Z 23003KT M03/M03 A3028 RMK A01 T10311034  RH  098%=      5-min Rain = 0
KMD1 130647Z 23003KT M03/M03 A3028 RMK A01 T10311034  RH  098%=      5-min Rain = 0
KMD1 130648Z 23002KT M03/M03 A3028 RMK A01 T10311034  RH  098%=      5-min Rain = 0
KMD1 130649Z 23002KT M03/M03 A3028 RMK A01 T10311034  RH  098%=      5-min Rain = 0
KMD1 130650Z 23002KT M03/M03 A3028 RMK A01 T10311033  RH  098%=      5-min Rain = 0
KMD1 130651Z 23002KT M03/M03 A3028 RMK A01 T10301033  RH  098%=      5-min Rain = 0
KMD1 130652Z 23002KT M03/M03 A3028 RMK A01 T10311033  RH  098%=      5-min Rain = 0
KMD1 130653Z 24002KT M03/M03 A3028 RMK A01 T10301033  RH  098%=      5-min Rain = 0
KMD1 130654Z 24002KT M03/M03 A3028 RMK A01 T10301033  RH  098%=      5-min Rain = 0
KMD1 130655Z 24002KT M03/M03 A3028 RMK A01 T10301032  RH  098%=      5-min Rain = 0
KMD1 130656Z 23002KT M03/M03 A3028 RMK A01 T10291032  RH  098%=      5-min Rain = 0
KMD1 130657Z 24002KT M03/M03 A3027 RMK A01 T10301032  RH  098%=      5-min Rain = 0
KMD1 130658Z 24002KT M03/M03 A3027 RMK A01 T10291032  RH  098%=      5-min Rain = 0
KMD1 130659Z 24002KT M03/M03 A3027 RMK A01 T10291032  RH  098%=      5-min Rain = 0
KMD1 130700Z 25002KT M03/M03 A3028 RMK A01 T10291031  RH  098%=      5-min Rain = 0
KMD1 130701Z 25002KT M03/M03 A3028 RMK A01 T10291032  RH  098%=      5-min Rain = 0
KMD1 130702Z 25001KT M03/M03 A3028 RMK A01 T10291032  RH  098%=      5-min Rain = 0
KMD1 130703Z 25002KT M03/M03 A3028 RMK A01 T10291032  RH  098%=      5-min Rain = 0
KMD1 130704Z 25002KT M03/M03 A3028 RMK A01 T10301033  RH  098%=      5-min Rain = 0
KMD1 130705Z 24002KT M03/M03 A3028 RMK A01 T10301034  RH  098%=      5-min Rain = 0
KMD1 130706Z 24002KT M03/M03 A3028 RMK A01 T10301034  RH  098%=      5-min Rain = 0
KMD1 130707Z 23002KT M03/M03 A3028 RMK A01 T10311034  RH  098%=      5-min Rain = 0
KMD1 130708Z 23002KT M03/M03 A3028 RMK A01 T10311034  RH  098%=      5-min Rain = 0
KMD1 130709Z 22002KT M03/M03 A3027 RMK A01 T10311034  RH  098%=      5-min Rain = 0
KMD1 130710Z 22003KT M03/M03 A3027 RMK A01 T10311034  RH  098%=      5-min Rain = 0
KMD1 130711Z 22003KT M03/M03 A3027 RMK A01 T10301033  RH  098%=      5-min Rain = 0
KMD1 130712Z 22003KT M03/M03 A3027 RMK A01 T10291031  RH  098%=      5-min Rain = 0
KMD1 130713Z 22003KT M03/M03 A3027 RMK A01 T10281030  RH  098%=      5-min Rain = 0
KMD1 130714Z 22003KT M03/M03 A3027 RMK A01 T10281030  RH  098%=      5-min Rain = 0
KMD1 130715Z 22003KT M03/M03 A3027 RMK A01 T10271029  RH  098%=      5-min Rain = 0
KMD1 130716Z 23003KT M03/M03 A3027 RMK A01 T10271029  RH  098%=      5-min Rain = 0
KMD1 130717Z 23003KT M03/M03 A3027 RMK A01 T10271029  RH  098%=      5-min Rain = 0
KMD1 130718Z 23003KT M03/M03 A3027 RMK A01 T10271029  RH  098%=      5-min Rain = 0
KMD1 130719Z 23003KT M03/M03 A3027 RMK A01 T10261029  RH  098%=      5-min Rain = 0
KMD1 130720Z 23003KT M03/M03 A3027 RMK A01 T10261029  RH  098%=      5-min Rain = 0
KMD1 130721Z 23002KT M03/M03 A3027 RMK A01 T10261029  RH  098%=      5-min Rain = 0
KMD1 130722Z 24002KT M03/M03 A3027 RMK A01 T10261029  RH  098%=      5-min Rain = 0
KMD1 130723Z 24002KT M03/M03 A3027 RMK A01 T10261029  RH  098%=      5-min Rain = 0
KMD1 130724Z 24001KT M03/M03 A3027 RMK A01 T10271031  RH  097%=      5-min Rain = 0
KMD1 130725Z 24001KT M03/M03 A3027 RMK A01 T10301034  RH  097%=      5-min Rain = 0
KMD1 130726Z 24001KT M03/M04 A3027 RMK A01 T10321037  RH  096%=      5-min Rain = 0
KMD1 130727Z 24001KT M03/M04 A3027 RMK A01 T10331038  RH  096%=      5-min Rain = 0
KMD1 130728Z 23001KT M03/M04 A3027 RMK A01 T10331038  RH  097%=      5-min Rain = 0
KMD1 130729Z 24001KT M03/M04 A3027 RMK A01 T10341038  RH  097%=      5-min Rain = 0
KMD1 130730Z 24001KT M03/M04 A3026 RMK A01 T10341038  RH  097%=      5-min Rain = 0
KMD1 130731Z 24001KT M04/M04 A3026 RMK A01 T10351039  RH  097%=      5-min Rain = 0
KMD1 130732Z 24001KT M03/M04 A3026 RMK A01 T10341038  RH  097%=      5-min Rain = 0
KMD1 130733Z 24001KT M03/M04 A3026 RMK A01 T10341038  RH  097%=      5-min Rain = 0
KMD1 130734Z 24001KT M03/M04 A3026 RMK A01 T10341038  RH  097%=      5-min Rain = 0
KMD1 130735Z 23001KT M03/M04 A3026 RMK A01 T10341038  RH  097%=      5-min Rain = 0
KMD1 130736Z 22002KT M03/M04 A3026 RMK A01 T10341038  RH  097%=      5-min Rain = 0
KMD1 130737Z 22002KT M04/M04 A3026 RMK A01 T10351039  RH  097%=      5-min Rain = 0
KMD1 130738Z 22002KT M04/M04 A3026 RMK A01 T10351039  RH  097%=      5-min Rain = 0
KMD1 130739Z 22002KT M04/M04 A3026 RMK A01 T10351039  RH  097%=      5-min Rain = 0
KMD1 130740Z 21002KT M04/M04 A3025 RMK A01 T10351039  RH  098%=      5-min Rain = 0
KMD1 130741Z 21002KT M04/M04 A3025 RMK A01 T10351038  RH  098%=      5-min Rain = 0
KMD1 130742Z 21002KT M03/M04 A3025 RMK A01 T10341037  RH  098%=      5-min Rain = 0
KMD1 130743Z 22003KT M03/M04 A3025 RMK A01 T10331036  RH  098%=      5-min Rain = 0
KMD1 130744Z 23003KT M03/M04 A3025 RMK A01 T10321035  RH  098%=      5-min Rain = 0
KMD1 130745Z 23004KT M03/M03 A3025 RMK A01 T10301032  RH  099%=      5-min Rain = 0
KMD1 130746Z 23004KT M03/M03 A3025 RMK A01 T10281030  RH  099%=      5-min Rain = 0
KMD1 130747Z 24004KT M03/M03 A3025 RMK A01 T10281029  RH  099%=      5-min Rain = 0
KMD1 130748Z 24004KT M03/M03 A3025 RMK A01 T10271029  RH  099%=      5-min Rain = 0
KMD1 130749Z 24004KT M03/M03 A3025 RMK A01 T10271028  RH  099%=      5-min Rain = 0
KMD1 130750Z 24004KT M03/M03 A3025 RMK A01 T10261029  RH  098%=      5-min Rain = 0
KMD1 130751Z 24003KT M03/M03 A3025 RMK A01 T10271029  RH  098%=      5-min Rain = 0
KMD1 130752Z 24003KT M03/M03 A3025 RMK A01 T10261028  RH  098%=      5-min Rain = 0
KMD1 130753Z 24003KT M03/M03 A3025 RMK A01 T10261028  RH  098%=      5-min Rain = 0
KMD1 130754Z 24002KT M03/M03 A3025 RMK A01 T10261029  RH  098%=      5-min Rain = 0
KMD1 130755Z 24002KT M03/M03 A3026 RMK A01 T10261029  RH  098%=      5-min Rain = 0
KMD1 130756Z 25002KT M03/M03 A3026 RMK A01 T10261029  RH  098%=      5-min Rain = 0
KMD1 130757Z 25002KT M03/M03 A3026 RMK A01 T10261029  RH  098%=      5-min Rain = 0
KMD1 130758Z 25002KT M03/M03 A3026 RMK A01 T10271031  RH  097%=      5-min Rain = 0
KMD1 130759Z 25001KT M03/M04 A3026 RMK A01 T10301035  RH  097%=      5-min Rain = 0
KMD1 130800Z 26001KT M03/M04 A3026 RMK A01 T10331038  RH  096%=      5-min Rain = 0
KMD1 130801Z 26001KT M03/M04 A3026 RMK A01 T10341039  RH  096%=      5-min Rain = 0
KMD1 130802Z 25001KT M04/M04 A3026 RMK A01 T10351039  RH  096%=      5-min Rain = 0
KMD1 130803Z 26001KT M04/M04 A3026 RMK A01 T10351040  RH  097%=      5-min Rain = 0
KMD1 130804Z 26001KT M04/M04 A3026 RMK A01 T10351040  RH  097%=      5-min Rain = 0
KMD1 130805Z 26002KT M04/M04 A3026 RMK A01 T10351039  RH  097%=      5-min Rain = 0
KMD1 130806Z 26002KT M04/M04 A3026 RMK A01 T10351038  RH  097%=      5-min Rain = 0
KMD1 130807Z 26002KT M03/M04 A3026 RMK A01 T10341037  RH  098%=      5-min Rain = 0
KMD1 130808Z 26002KT M03/M04 A3026 RMK A01 T10331036  RH  098%=      5-min Rain = 0
KMD1 130809Z 26002KT M03/M04 A3026 RMK A01 T10331036  RH  098%=      5-min Rain = 0
KMD1 130810Z 26002KT M03/M04 A3026 RMK A01 T10321035  RH  098%=      5-min Rain = 0
KMD1 130811Z 25002KT M03/M04 A3026 RMK A01 T10321035  RH  098%=      5-min Rain = 0
KMD1 130812Z 25002KT M03/M04 A3026 RMK A01 T10321035  RH  098%=      5-min Rain = 0
KMD1 130813Z 25003KT M03/M03 A3026 RMK A01 T10311034  RH  098%=      5-min Rain = 0
KMD1 130814Z 25003KT M03/M03 A3026 RMK A01 T10311034  RH  098%=      5-min Rain = 0
KMD1 130815Z 25003KT M03/M03 A3026 RMK A01 T10311033  RH  098%=      5-min Rain = 0
KMD1 130816Z 24002KT M03/M03 A3026 RMK A01 T10311033  RH  098%=      5-min Rain = 0
KMD1 130817Z 24002KT M03/M03 A3026 RMK A01 T10311033  RH  098%=      5-min Rain = 0
KMD1 130818Z 23003KT M03/M03 A3026 RMK A01 T10301033  RH  098%=      5-min Rain = 0
KMD1 130819Z 23003KT M03/M03 A3026 RMK A01 T10301033  RH  098%=      5-min Rain = 0
KMD1 130820Z 23003KT M03/M03 A3026 RMK A01 T10301032  RH  098%=      5-min Rain = 0
KMD1 130821Z 23003KT M03/M03 A3026 RMK A01 T10291031  RH  098%=      5-min Rain = 0
KMD1 130822Z 23003KT M03/M03 A3026 RMK A01 T10291031  RH  098%=      5-min Rain = 0
KMD1 130823Z 23003KT M03/M03 A3026 RMK A01 T10281031  RH  098%=      5-min Rain = 0
KMD1 130824Z 23003KT M03/M03 A3026 RMK A01 T10281030  RH  098%=      5-min Rain = 0
KMD1 130825Z 23004KT M03/M03 A3026 RMK A01 T10281030  RH  098%=      5-min Rain = 0
KMD1 130826Z 23004KT M03/M03 A3026 RMK A01 T10281030  RH  098%=      5-min Rain = 0
KMD1 130827Z 23003KT M03/M03 A3026 RMK A01 T10281030  RH  098%=      5-min Rain = 0
KMD1 130828Z 22003KT M03/M03 A3026 RMK A01 T10281030  RH  098%=      5-min Rain = 0
KMD1 130829Z 22002KT M03/M03 A3026 RMK A01 T10271030  RH  098%=      5-min Rain = 0
KMD1 130830Z 23003KT M03/M03 A3026 RMK A01 T10281031  RH  098%=      5-min Rain = 0
KMD1 130831Z 23002KT M03/M03 A3026 RMK A01 T10281031  RH  098%=      5-min Rain = 0
KMD1 130832Z 24002KT M03/M03 A3026 RMK A01 T10291032  RH  098%=      5-min Rain = 0
KMD1 130833Z 25002KT M03/M03 A3026 RMK A01 T10301033  RH  098%=      5-min Rain = 0
KMD1 130834Z 24003KT M03/M04 A3026 RMK A01 T10321035  RH  097%=      5-min Rain = 0
KMD1 130835Z 25003KT M03/M04 A3026 RMK A01 T10331037  RH  097%=      5-min Rain = 0
KMD1 130836Z 24003KT M04/M04 A3026 RMK A01 T10351039  RH  097%=      5-min Rain = 0
KMD1 130837Z 24003KT M04/M04 A3026 RMK A01 T10361040  RH  097%=      5-min Rain = 0
KMD1 130838Z 24003KT M04/M04 A3026 RMK A01 T10371041  RH  097%=      5-min Rain = 0
KMD1 130839Z 24003KT M04/M04 A3026 RMK A01 T10371041  RH  097%=      5-min Rain = 0
KMD1 130840Z 25003KT M04/M04 A3026 RMK A01 T10371041  RH  097%=      5-min Rain = 0
KMD1 130841Z 24003KT M04/M04 A3026 RMK A01 T10371040  RH  098%=      5-min Rain = 0
KMD1 130842Z 24003KT M04/M04 A3026 RMK A01 T10361039  RH  098%=      5-min Rain = 0
KMD1 130843Z 24003KT M04/M04 A3026 RMK A01 T10351038  RH  098%=      5-min Rain = 0
KMD1 130844Z 24003KT M04/M04 A3026 RMK A01 T10351038  RH  098%=      5-min Rain = 0
KMD1 130845Z 24004KT M04/M04 A3026 RMK A01 T10351037  RH  098%=      5-min Rain = 0
KMD1 130846Z 24004KT M04/M04 A3026 RMK A01 T10351038  RH  098%=      5-min Rain = 0
KMD1 130847Z 24004KT M04/M04 A3026 RMK A01 T10351037  RH  098%=      5-min Rain = 0
KMD1 130848Z 24004KT M03/M04 A3026 RMK A01 T10341037  RH  098%=      5-min Rain = 0
KMD1 130849Z 24004KT M03/M04 A3026 RMK A01 T10341036  RH  098%=      5-min Rain = 0
KMD1 130850Z 24004KT M03/M04 A3026 RMK A01 T10331035  RH  099%=      5-min Rain = 0
KMD1 130851Z 24004KT M03/M03 A3026 RMK A01 T10321034  RH  099%=      5-min Rain = 0
KMD1 130852Z 25004KT M03/M03 A3026 RMK A01 T10311033  RH  099%=      5-min Rain = 0
KMD1 130853Z 25004KT M03/M03 A3026 RMK A01 T10301032  RH  099%=      5-min Rain = 0
KMD1 130854Z 25004KT M03/M03 A3026 RMK A01 T10301032  RH  099%=      5-min Rain = 0
KMD1 130855Z 25004KT M03/M03 A3026 RMK A01 T10301032  RH  099%=      5-min Rain = 0
KMD1 130856Z 25004KT M03/M03 A3026 RMK A01 T10301032  RH  099%=      5-min Rain = 0
KMD1 130857Z 25004KT M03/M03 A3026 RMK A01 T10301032  RH  098%=      5-min Rain = 0
KMD1 130858Z 25003KT M03/M03 A3026 RMK A01 T10311034  RH  098%=      5-min Rain = 0
KMD1 130859Z 24003KT M03/M04 A3026 RMK A01 T10321036  RH  098%=      5-min Rain = 0
KMD1 130900Z 24003KT M03/M04 A3026 RMK A01 T10341037  RH  097%=      5-min Rain = 0
KMD1 130901Z 24003KT M03/M04 A3026 RMK A01 T10341038  RH  097%=      5-min Rain = 0
KMD1 130902Z 24003KT M03/M04 A3026 RMK A01 T10341037  RH  098%=      5-min Rain = 0
KMD1 130903Z 24003KT M03/M04 A3026 RMK A01 T10331036  RH  098%=      5-min Rain = 0
KMD1 130904Z 24003KT M03/M04 A3026 RMK A01 T10331036  RH  098%=      5-min Rain = 0
KMD1 130905Z 24003KT M03/M04 A3026 RMK A01 T10331036  RH  098%=      5-min Rain = 0
KMD1 130906Z 24003KT M03/M04 A3026 RMK A01 T10331036  RH  098%=      5-min Rain = 0
KMD1 130907Z 24003KT M03/M04 A3026 RMK A01 T10331036  RH  098%=      5-min Rain = 0
KMD1 130908Z 24003KT M03/M04 A3026 RMK A01 T10341036  RH  098%=      5-min Rain = 0
KMD1 130909Z 24003KT M03/M04 A3026 RMK A01 T10331036  RH  098%=      5-min Rain = 0
KMD1 130910Z 24003KT M03/M04 A3026 RMK A01 T10331036  RH  098%=      5-min Rain = 0
KMD1 130911Z 24003KT M03/M04 A3026 RMK A01 T10331036  RH  098%=      5-min Rain = 0
KMD1 130912Z 24003KT M03/M04 A3026 RMK A01 T10331035  RH  098%=      5-min Rain = 0
KMD1 130913Z 24003KT M03/M04 A3026 RMK A01 T10331036  RH  098%=      5-min Rain = 0
KMD1 130914Z 24003KT M03/M04 A3026 RMK A01 T10331035  RH  098%=      5-min Rain = 0
KMD1 130915Z 24004KT M03/M04 A3026 RMK A01 T10331035  RH  098%=      5-min Rain = 0
KMD1 130916Z 24004KT M03/M04 A3026 RMK A01 T10331035  RH  098%=      5-min Rain = 0
KMD1 130917Z 23004KT M03/M04 A3026 RMK A01 T10331035  RH  098%=      5-min Rain = 0
KMD1 130918Z 23004KT M03/M03 A3026 RMK A01 T10321034  RH  099%=      5-min Rain = 0
KMD1 130919Z 23004KT M03/M03 A3026 RMK A01 T10321034  RH  099%=      5-min Rain = 0
KMD1 130920Z 23004KT M03/M03 A3026 RMK A01 T10311033  RH  099%=      5-min Rain = 0
KMD1 130921Z 23004KT M03/M03 A3026 RMK A01 T10311033  RH  099%=      5-min Rain = 0
KMD1 130922Z 23004KT M03/M03 A3026 RMK A01 T10301032  RH  099%=      5-min Rain = 0
KMD1 130923Z 23004KT M03/M03 A3025 RMK A01 T10311033  RH  098%=      5-min Rain = 0
KMD1 130924Z 23003KT M03/M03 A3025 RMK A01 T10301032  RH  098%=      5-min Rain = 0
KMD1 130925Z 23003KT M03/M03 A3025 RMK A01 T10301032  RH  098%=      5-min Rain = 0
KMD1 130926Z 24003KT M03/M03 A3026 RMK A01 T10301032  RH  098%=      5-min Rain = 0
KMD1 130927Z 24003KT M03/M03 A3026 RMK A01 T10301032  RH  098%=      5-min Rain = 0
KMD1 130928Z 24003KT M03/M03 A3026 RMK A01 T10301032  RH  098%=      5-min Rain = 0
KMD1 130929Z 25003KT M03/M03 A3026 RMK A01 T10301033  RH  098%=      5-min Rain = 0
KMD1 130930Z 25003KT M03/M03 A3025 RMK A01 T10301033  RH  098%=      5-min Rain = 0
KMD1 130931Z 25003KT M03/M03 A3025 RMK A01 T10301033  RH  098%=      5-min Rain = 0
KMD1 130932Z 24003KT M03/M03 A3025 RMK A01 T10301032  RH  098%=      5-min Rain = 0
KMD1 130933Z 25003KT M03/M03 A3025 RMK A01 T10291032  RH  098%=      5-min Rain = 0
KMD1 130934Z 25003KT M03/M03 A3025 RMK A01 T10301032  RH  098%=      5-min Rain = 0
KMD1 130935Z 25004KT M03/M04 A3025 RMK A01 T10321035  RH  097%=      5-min Rain = 0
KMD1 130936Z 25004KT M03/M04 A3025 RMK A01 T10331037  RH  097%=      5-min Rain = 0
KMD1 130937Z 25003KT M03/M04 A3025 RMK A01 T10341038  RH  097%=      5-min Rain = 0
KMD1 130938Z 25004KT M04/M04 A3025 RMK A01 T10351039  RH  097%=      5-min Rain = 0
KMD1 130939Z 25004KT M04/M04 A3025 RMK A01 T10361040  RH  097%=      5-min Rain = 0
KMD1 130940Z 25004KT M04/M04 A3025 RMK A01 T10371041  RH  097%=      5-min Rain = 0
KMD1 130941Z 25004KT M04/M04 A3025 RMK A01 T10381042  RH  097%=      5-min Rain = 0
KMD1 130942Z 25004KT M04/M04 A3025 RMK A01 T10391043  RH  097%=      5-min Rain = 0
KMD1 130943Z 25004KT M04/M04 A3025 RMK A01 T10391043  RH  097%=      5-min Rain = 0
KMD1 130944Z 25004KT M04/M04 A3025 RMK A01 T10391043  RH  097%=      5-min Rain = 0
KMD1 130945Z 25004KT M04/M04 A3025 RMK A01 T10401043  RH  097%=      5-min Rain = 0
KMD1 130946Z 25004KT M04/M04 A3025 RMK A01 T10401044  RH  097%=      5-min Rain = 0
KMD1 130947Z 25004KT M04/M04 A3025 RMK A01 T10401043  RH  098%=      5-min Rain = 0
KMD1 130948Z 25004KT M04/M04 A3025 RMK A01 T10401044  RH  098%=      5-min Rain = 0
KMD1 130949Z 25004KT M04/M04 A3025 RMK A01 T10401043  RH  098%=      5-min Rain = 0
KMD1 130950Z 25004KT M04/M04 A3025 RMK A01 T10401043  RH  098%=      5-min Rain = 0
KMD1 130951Z 26004KT M04/M04 A3025 RMK A01 T10411044  RH  098%=      5-min Rain = 0
KMD1 130952Z 26004KT M04/M04 A3025 RMK A01 T10411044  RH  098%=      5-min Rain = 0
KMD1 130953Z 26004KT M04/M04 A3025 RMK A01 T10401043  RH  098%=      5-min Rain = 0
KMD1 130954Z 26004KT M04/M04 A3025 RMK A01 T10401042  RH  098%=      5-min Rain = 0
KMD1 130955Z 26004KT M04/M04 A3025 RMK A01 T10381041  RH  098%=      5-min Rain = 0
KMD1 130956Z 26004KT M04/M04 A3025 RMK A01 T10381040  RH  098%=      5-min Rain = 0
KMD1 130957Z 26004KT M04/M04 A3025 RMK A01 T10381040  RH  098%=      5-min Rain = 0
KMD1 130958Z 26004KT M04/M04 A3025 RMK A01 T10381040  RH  098%=      5-min Rain = 0
KMD1 130959Z 25004KT M04/M04 A3025 RMK A01 T10371039  RH  098%=      5-min Rain = 0
KMD1 131000Z 25005KT M04/M04 A3025 RMK A01 T10361038  RH  099%=      5-min Rain = 0
KMD1 131001Z 25005KT M03/M04 A3025 RMK A01 T10341036  RH  099%=      5-min Rain = 0
KMD1 131002Z 25005KT M03/M03 A3025 RMK A01 T10321034  RH  099%=      5-min Rain = 0
KMD1 131003Z 25005KT M03/M03 A3025 RMK A01 T10311033  RH  099%=      5-min Rain = 0
KMD1 131004Z 24005KT M03/M03 A3025 RMK A01 T10301031  RH  099%=      5-min Rain = 0
KMD1 131005Z 25005KT M03/M03 A3025 RMK A01 T10301032  RH  099%=      5-min Rain = 0
KMD1 131006Z 25005KT M03/M03 A3025 RMK A01 T10301032  RH  099%=      5-min Rain = 0
KMD1 131007Z 25005KT M03/M03 A3025 RMK A01 T10301032  RH  099%=      5-min Rain = 0
KMD1 131008Z 24005KT M03/M03 A3025 RMK A01 T10301032  RH  098%=      5-min Rain = 0
KMD1 131009Z 24005KT M03/M03 A3025 RMK A01 T10301032  RH  098%=      5-min Rain = 0
KMD1 131010Z 25005KT M03/M03 A3025 RMK A01 T10301033  RH  098%=      5-min Rain = 0
KMD1 131011Z 25005KT M03/M03 A3025 RMK A01 T10301033  RH  098%=      5-min Rain = 0
KMD1 131012Z 25005KT M03/M03 A3025 RMK A01 T10301033  RH  098%=      5-min Rain = 0
KMD1 131013Z 25005KT M03/M03 A3025 RMK A01 T10301033  RH  098%=      5-min Rain = 0
KMD1 131014Z 25005KT M03/M03 A3025 RMK A01 T10311034  RH  098%=      5-min Rain = 0
KMD1 131015Z 25004KT M03/M04 A3025 RMK A01 T10311035  RH  098%=      5-min Rain = 0
KMD1 131016Z 25003KT M03/M04 A3025 RMK A01 T10311035  RH  097%=      5-min Rain = 0
KMD1 131017Z 26003KT M03/M04 A3025 RMK A01 T10321035  RH  097%=      5-min Rain = 0
KMD1 131018Z 26003KT M03/M04 A3025 RMK A01 T10331036  RH  097%=      5-min Rain = 0
KMD1 131019Z 26002KT M03/M04 A3025 RMK A01 T10331037  RH  097%=      5-min Rain = 0
KMD1 131020Z 26002KT M03/M04 A3025 RMK A01 T10331037  RH  097%=      5-min Rain = 0
KMD1 131021Z 26002KT M03/M04 A3025 RMK A01 T10331037  RH  097%=      5-min Rain = 0
KMD1 131022Z 26001KT M03/M04 A3025 RMK A01 T10341038  RH  097%=      5-min Rain = 0
KMD1 131023Z 26001KT M04/M04 A3025 RMK A01 T10351039  RH  097%=      5-min Rain = 0
KMD1 131024Z 25001KT M04/M04 A3025 RMK A01 T10351039  RH  097%=      5-min Rain = 0
KMD1 131025Z 25002KT M04/M04 A3025 RMK A01 T10351039  RH  097%=      5-min Rain = 0
KMD1 131026Z 25001KT M04/M04 A3025 RMK A01 T10361040  RH  097%=      5-min Rain = 0
KMD1 131027Z 25001KT M04/M04 A3025 RMK A01 T10361039  RH  097%=      5-min Rain = 0
KMD1 131028Z 25002KT M04/M04 A3025 RMK A01 T10361040  RH  097%=      5-min Rain = 0
KMD1 131029Z 25002KT M04/M04 A3025 RMK A01 T10361039  RH  097%=      5-min Rain = 0
KMD1 131030Z 25002KT M04/M04 A3025 RMK A01 T10361040  RH  097%=      5-min Rain = 0
KMD1 131031Z 26001KT M04/M04 A3025 RMK A01 T10361040  RH  097%=      5-min Rain = 0
KMD1 131032Z 25001KT M04/M04 A3025 RMK A01 T10371040  RH  097%=      5-min Rain = 0
KMD1 131033Z 25001KT M04/M04 A3025 RMK A01 T10371041  RH  097%=      5-min Rain = 0
KMD1 131034Z 25001KT M04/M04 A3025 RMK A01 T10371041  RH  097%=      5-min Rain = 0
KMD1 131035Z 24001KT M04/M04 A3025 RMK A01 T10371041  RH  097%=      5-min Rain = 0
KMD1 131036Z 24001KT M04/M04 A3025 RMK A01 T10371041  RH  097%=      5-min Rain = 0
KMD1 131037Z 23001KT M04/M04 A3025 RMK A01 T10371040  RH  098%=      5-min Rain = 0
KMD1 131038Z 23002KT M04/M04 A3025 RMK A01 T10361040  RH  098%=      5-min Rain = 0
KMD1 131039Z 22001KT M04/M04 A3025 RMK A01 T10361040  RH  098%=      5-min Rain = 0
KMD1 131040Z 22001KT M04/M04 A3025 RMK A01 T10361039  RH  098%=      5-min Rain = 0
KMD1 131041Z 22001KT M04/M04 A3025 RMK A01 T10361039  RH  098%=      5-min Rain = 0
KMD1 131042Z 23002KT M04/M04 A3025 RMK A01 T10361039  RH  098%=      5-min Rain = 0
KMD1 131043Z 23002KT M04/M04 A3025 RMK A01 T10361039  RH  098%=      5-min Rain = 0
KMD1 131044Z 23002KT M04/M04 A3025 RMK A01 T10361039  RH  098%=      5-min Rain = 0
KMD1 131045Z 23002KT M04/M04 A3025 RMK A01 T10361039  RH  098%=      5-min Rain = 0
KMD1 131046Z 23002KT M04/M04 A3025 RMK A01 T10361039  RH  098%=      5-min Rain = 0
KMD1 131047Z 22003KT M04/M04 A3025 RMK A01 T10361039  RH  098%=      5-min Rain = 0
KMD1 131048Z 22003KT M04/M04 A3025 RMK A01 T10361039  RH  098%=      5-min Rain = 0
KMD1 131049Z 22003KT M04/M04 A3025 RMK A01 T10361039  RH  098%=      5-min Rain = 0
KMD1 131050Z 22003KT M04/M04 A3025 RMK A01 T10361038  RH  098%=      5-min Rain = 0
KMD1 131051Z 21003KT M04/M04 A3025 RMK A01 T10351038  RH  098%=      5-min Rain = 0
KMD1 131052Z 21003KT M04/M04 A3025 RMK A01 T10351038  RH  098%=      5-min Rain = 0
KMD1 131053Z 21003KT M04/M04 A3025 RMK A01 T10351038  RH  098%=      5-min Rain = 0
KMD1 131054Z 21003KT M04/M04 A3025 RMK A01 T10351037  RH  098%=      5-min Rain = 0
KMD1 131055Z 21003KT M04/M04 A3025 RMK A01 T10351037  RH  098%=      5-min Rain = 0
KMD1 131056Z 22004KT M04/M04 A3025 RMK A01 T10351037  RH  098%=      5-min Rain = 0
KMD1 131057Z 22004KT M03/M04 A3025 RMK A01 T10341036  RH  098%=      5-min Rain = 0
KMD1 131058Z 22004KT M03/M04 A3025 RMK A01 T10341036  RH  098%=      5-min Rain = 0
KMD1 131059Z 22004KT M03/M04 A3025 RMK A01 T10341036  RH  098%=      5-min Rain = 0
KMD1 131100Z 23003KT M03/M04 A3025 RMK A01 T10341036  RH  099%=      5-min Rain = 0
KMD1 131101Z 23003KT M03/M04 A3025 RMK A01 T10341036  RH  099%=      5-min Rain = 0
KMD1 131102Z 24003KT M03/M04 A3025 RMK A01 T10341036  RH  098%=      5-min Rain = 0
KMD1 131103Z 24003KT M03/M04 A3025 RMK A01 T10341036  RH  098%=      5-min Rain = 0
KMD1 131104Z 24002KT M03/M04 A3025 RMK A01 T10341036  RH  098%=      5-min Rain = 0
KMD1 131105Z 23002KT M04/M04 A3025 RMK A01 T10361039  RH  098%=      5-min Rain = 0
KMD1 131106Z 23002KT M04/M04 A3025 RMK A01 T10381041  RH  097%=      5-min Rain = 0
KMD1 131107Z 23002KT M04/M04 A3025 RMK A01 T10391043  RH  097%=      5-min Rain = 0
KMD1 131108Z 23002KT M04/M04 A3025 RMK A01 T10391043  RH  097%=      5-min Rain = 0
KMD1 131109Z 23002KT M04/M04 A3025 RMK A01 T10391043  RH  098%=      5-min Rain = 0
KMD1 131110Z 23002KT M04/M04 A3025 RMK A01 T10401043  RH  098%=      5-min Rain = 0
KMD1 131111Z 23002KT M04/M04 A3025 RMK A01 T10391042  RH  098%=      5-min Rain = 0
KMD1 131112Z 22002KT M04/M04 A3025 RMK A01 T10391041  RH  098%=      5-min Rain = 0
KMD1 131113Z 22002KT M04/M04 A3025 RMK A01 T10381040  RH  099%=      5-min Rain = 0
KMD1 131114Z 22002KT M04/M04 A3025 RMK A01 T10371039  RH  099%=      5-min Rain = 0
KMD1 131115Z 22002KT M04/M04 A3025 RMK A01 T10351037  RH  099%=      5-min Rain = 0
KMD1 131116Z 22002KT M04/M04 A3025 RMK A01 T10351036  RH  099%=      5-min Rain = 0
KMD1 131117Z 22002KT M03/M04 A3025 RMK A01 T10341035  RH  099%=      5-min Rain = 0
KMD1 131118Z 21002KT M03/M04 A3025 RMK A01 T10331035  RH  099%=      5-min Rain = 0
KMD1 131119Z 21002KT M03/M03 A3025 RMK A01 T10331034  RH  099%=      5-min Rain = 0
KMD1 131120Z 21002KT M03/M04 A3025 RMK A01 T10331035  RH  099%=      5-min Rain = 0
KMD1 131121Z 21002KT M03/M04 A3025 RMK A01 T10331035  RH  099%=      5-min Rain = 0
KMD1 131122Z 21002KT M03/M04 A3024 RMK A01 T10331035  RH  099%=      5-min Rain = 0
KMD1 131123Z 22002KT M03/M04 A3024 RMK A01 T10331035  RH  099%=      5-min Rain = 0
KMD1 131124Z 22002KT M03/M04 A3024 RMK A01 T10331035  RH  099%=      5-min Rain = 0
KMD1 131125Z 22002KT M03/M04 A3025 RMK A01 T10331035  RH  099%=      5-min Rain = 0
KMD1 131126Z 22003KT M03/M04 A3024 RMK A01 T10331035  RH  099%=      5-min Rain = 0
KMD1 131127Z 22002KT M03/M04 A3025 RMK A01 T10331035  RH  099%=      5-min Rain = 0
KMD1 131128Z 22003KT M03/M04 A3025 RMK A01 T10341035  RH  099%=      5-min Rain = 0
KMD1 131129Z 22003KT M03/M04 A3025 RMK A01 T10341036  RH  099%=      5-min Rain = 0
KMD1 131130Z 22003KT M03/M04 A3025 RMK A01 T10341036  RH  099%=      5-min Rain = 0
KMD1 131131Z 23002KT M04/M04 A3025 RMK A01 T10361038  RH  098%=      5-min Rain = 0
KMD1 131132Z 23003KT M04/M04 A3025 RMK A01 T10371039  RH  098%=      5-min Rain = 0
KMD1 131133Z 23003KT M04/M04 A3025 RMK A01 T10371040  RH  098%=      5-min Rain = 0
KMD1 131134Z 23003KT M04/M04 A3025 RMK A01 T10371039  RH  098%=      5-min Rain = 0
KMD1 131135Z 24003KT M04/M04 A3025 RMK A01 T10371040  RH  098%=      5-min Rain = 0
KMD1 131136Z 24003KT M04/M04 A3025 RMK A01 T10381041  RH  098%=      5-min Rain = 0
KMD1 131137Z 24003KT M04/M04 A3024 RMK A01 T10381041  RH  098%=      5-min Rain = 0
KMD1 131138Z 25004KT M04/M04 A3024 RMK A01 T10391041  RH  098%=      5-min Rain = 0
KMD1 131139Z 25004KT M04/M04 A3024 RMK A01 T10381040  RH  099%=      5-min Rain = 0
KMD1 131140Z 25004KT M04/M04 A3024 RMK A01 T10381039  RH  099%=      5-min Rain = 0
KMD1 131141Z 25003KT M04/M04 A3024 RMK A01 T10361037  RH  099%=      5-min Rain = 0
KMD1 131142Z 25003KT M04/M04 A3024 RMK A01 T10361037  RH  099%=      5-min Rain = 0
KMD1 131143Z 26004KT M04/M04 A3024 RMK A01 T10361037  RH  099%=      5-min Rain = 0
KMD1 131144Z 26003KT M04/M04 A3024 RMK A01 T10361038  RH  099%=      5-min Rain = 0
KMD1 131145Z 27004KT M04/M04 A3024 RMK A01 T10361038  RH  099%=      5-min Rain = 0
KMD1 131146Z 27004KT M04/M04 A3024 RMK A01 T10361038  RH  099%=      5-min Rain = 0
KMD1 131147Z 27003KT M04/M04 A3024 RMK A01 T10371039  RH  099%=      5-min Rain = 0
KMD1 131148Z 27003KT M04/M04 A3024 RMK A01 T10371039  RH  099%=      5-min Rain = 0
KMD1 131149Z 27003KT M04/M04 A3024 RMK A01 T10371039  RH  099%=      5-min Rain = 0
KMD1 131150Z 26003KT M04/M04 A3024 RMK A01 T10371039  RH  099%=      5-min Rain = 0
KMD1 131151Z 26003KT M04/M04 A3024 RMK A01 T10371039  RH  099%=      5-min Rain = 0
KMD1 131152Z 26003KT M04/M04 A3024 RMK A01 T10361038  RH  099%=      5-min Rain = 0
KMD1 131153Z 25003KT M04/M04 A3024 RMK A01 T10361037  RH  099%=      5-min Rain = 0
KMD1 131154Z 25004KT M04/M04 A3024 RMK A01 T10361038  RH  099%=      5-min Rain = 0
KMD1 131155Z 24004KT M04/M04 A3024 RMK A01 T10361037  RH  099%=      5-min Rain = 0
KMD1 131156Z 25004KT M04/M04 A3024 RMK A01 T10351036  RH  099%=      5-min Rain = 0
KMD1 131157Z 24004KT M03/M04 A3024 RMK A01 T10341036  RH  099%=      5-min Rain = 0
KMD1 131158Z 25004KT M03/M04 A3024 RMK A01 T10341036  RH  099%=      5-min Rain = 0
KMD1 131159Z 25004KT M03/M04 A3024 RMK A01 T10341036  RH  099%=      5-min Rain = 0
KMD1 131200Z 25004KT M03/M04 A3024 RMK A01 T10341036  RH  099%=      5-min Rain = 0
KMD1 131201Z 25004KT M04/M04 A3024 RMK A01 T10351037  RH  098%=      5-min Rain = 0
KMD1 131202Z 25003KT M04/M04 A3024 RMK A01 T10351037  RH  098%=      5-min Rain = 0
KMD1 131203Z 25004KT M04/M04 A3024 RMK A01 T10351037  RH  098%=      5-min Rain = 0
KMD1 131204Z 25003KT M04/M04 A3024 RMK A01 T10351038  RH  098%=      5-min Rain = 0
KMD1 131205Z 25003KT M04/M04 A3024 RMK A01 T10361039  RH  098%=      5-min Rain = 0
KMD1 131206Z 26003KT M04/M04 A3024 RMK A01 T10371039  RH  098%=      5-min Rain = 0
KMD1 131207Z 25003KT M04/M04 A3024 RMK A01 T10371040  RH  098%=      5-min Rain = 0
KMD1 131208Z 25003KT M04/M04 A3024 RMK A01 T10371040  RH  098%=      5-min Rain = 0
KMD1 131209Z 25003KT M04/M04 A3024 RMK A01 T10371040  RH  098%=      5-min Rain = 0
KMD1 131210Z 25003KT M04/M04 A3024 RMK A01 T10371041  RH  098%=      5-min Rain = 0
KMD1 131211Z 25003KT M04/M04 A3024 RMK A01 T10381041  RH  098%=      5-min Rain = 0
KMD1 131212Z 25003KT M04/M04 A3024 RMK A01 T10381042  RH  098%=      5-min Rain = 0
KMD1 131213Z 25004KT M04/M04 A3024 RMK A01 T10381041  RH  098%=      5-min Rain = 0
KMD1 131214Z 25004KT M04/M04 A3024 RMK A01 T10381041  RH  098%=      5-min Rain = 0
KMD1 131215Z 25004KT M04/M04 A3024 RMK A01 T10381041  RH  098%=      5-min Rain = 0
KMD1 131216Z 25004KT M04/M04 A3024 RMK A01 T10391042  RH  098%=      5-min Rain = 0
KMD1 131217Z 25004KT M04/M04 A3024 RMK A01 T10391042  RH  098%=      5-min Rain = 0
KMD1 131218Z 25004KT M04/M04 A3024 RMK A01 T10391042  RH  098%=      5-min Rain = 0
KMD1 131219Z 25004KT M04/M04 A3024 RMK A01 T10391042  RH  098%=      5-min Rain = 0
KMD1 131220Z 25004KT M04/M04 A3024 RMK A01 T10391042  RH  098%=      5-min Rain = 0
KMD1 131221Z 25003KT M04/M04 A3024 RMK A01 T10391042  RH  098%=      5-min Rain = 0
KMD1 131222Z 25003KT M04/M04 A3024 RMK A01 T10391043  RH  098%=      5-min Rain = 0
KMD1 131223Z 25003KT M04/M04 A3024 RMK A01 T10391042  RH  098%=      5-min Rain = 0
KMD1 131224Z 25003KT M04/M04 A3024 RMK A01 T10401043  RH  098%=      5-min Rain = 0
KMD1 131225Z 25003KT M04/M04 A3024 RMK A01 T10401043  RH  098%=      5-min Rain = 0
KMD1 131226Z 25003KT M04/M04 A3024 RMK A01 T10401043  RH  098%=      5-min Rain = 0
KMD1 131227Z 25003KT M04/M04 A3024 RMK A01 T10401043  RH  098%=      5-min Rain = 0
KMD1 131228Z 25003KT M04/M04 A3024 RMK A01 T10401044  RH  098%=      5-min Rain = 0
KMD1 131229Z 25002KT M04/M04 A3024 RMK A01 T10401044  RH  098%=      5-min Rain = 0
KMD1 131230Z 25002KT M04/M04 A3024 RMK A01 T10411044  RH  098%=      5-min Rain = 0
KMD1 131231Z 25002KT M04/M04 A3024 RMK A01 T10411044  RH  098%=      5-min Rain = 0
KMD1 131232Z 25002KT M04/M05 A3024 RMK A01 T10411045  RH  098%=      5-min Rain = 0
KMD1 131233Z 25002KT M04/M05 A3024 RMK A01 T10421045  RH  097%=      5-min Rain = 0
KMD1 131234Z 24002KT M04/M05 A3024 RMK A01 T10421045  RH  097%=      5-min Rain = 0
KMD1 131235Z 25002KT M04/M05 A3024 RMK A01 T10421046  RH  098%=      5-min Rain = 0
KMD1 131236Z 24002KT M04/M05 A3024 RMK A01 T10421045  RH  098%=      5-min Rain = 0
KMD1 131237Z 25002KT M04/M05 A3024 RMK A01 T10421045  RH  098%=      5-min Rain = 0
KMD1 131238Z 25002KT M04/M05 A3024 RMK A01 T10421046  RH  098%=      5-min Rain = 0
KMD1 131239Z 25001KT M04/M05 A3024 RMK A01 T10431046  RH  098%=      5-min Rain = 0
KMD1 131240Z 24001KT M04/M05 A3024 RMK A01 T10441047  RH  097%=      5-min Rain = 0
KMD1 131241Z 24001KT M04/M05 A3024 RMK A01 T10441047  RH  098%=      5-min Rain = 0
KMD1 131242Z 24001KT M04/M05 A3024 RMK A01 T10431047  RH  098%=      5-min Rain = 0
KMD1 131243Z 24001KT M04/M05 A3024 RMK A01 T10431046  RH  098%=      5-min Rain = 0
KMD1 131244Z 24002KT M04/M05 A3024 RMK A01 T10431046  RH  098%=      5-min Rain = 0
KMD1 131245Z 23002KT M04/M05 A3024 RMK A01 T10421045  RH  098%=      5-min Rain = 0
KMD1 131246Z 22002KT M04/M05 A3024 RMK A01 T10421045  RH  098%=      5-min Rain = 0
KMD1 131247Z 22001KT M04/M04 A3024 RMK A01 T10421044  RH  098%=      5-min Rain = 0
KMD1 131248Z 22001KT M04/M04 A3024 RMK A01 T10411044  RH  098%=      5-min Rain = 0
KMD1 131249Z 22001KT M04/M04 A3024 RMK A01 T10411044  RH  098%=      5-min Rain = 0
KMD1 131250Z 22001KT M04/M05 A3024 RMK A01 T10421045  RH  098%=      5-min Rain = 0
KMD1 131251Z 22001KT M04/M04 A3024 RMK A01 T10421044  RH  098%=      5-min Rain = 0
KMD1 131252Z 22002KT M04/M05 A3024 RMK A01 T10421045  RH  098%=      5-min Rain = 0
KMD1 131253Z 23002KT M04/M04 A3024 RMK A01 T10421044  RH  098%=      5-min Rain = 0
KMD1 131254Z 23001KT M04/M05 A3024 RMK A01 T10421045  RH  098%=      5-min Rain = 0
KMD1 131255Z 23001KT M04/M05 A3024 RMK A01 T10421045  RH  098%=      5-min Rain = 0
KMD1 131256Z 22002KT M04/M05 A3024 RMK A01 T10431046  RH  098%=      5-min Rain = 0
KMD1 131257Z 22002KT M04/M05 A3024 RMK A01 T10431045  RH  098%=      5-min Rain = 0
KMD1 131258Z 22002KT M04/M05 A3024 RMK A01 T10421045  RH  098%=      5-min Rain = 0
KMD1 131259Z 22002KT M04/M04 A3024 RMK A01 T10421044  RH  098%=      5-min Rain = 0
KMD1 131300Z 22002KT M04/M04 A3024 RMK A01 T10421044  RH  098%=      5-min Rain = 0
KMD1 131301Z 22002KT M04/M04 A3024 RMK A01 T10411043  RH  099%=      5-min Rain = 0
KMD1 131302Z 23002KT M04/M04 A3024 RMK A01 T10401042  RH  099%=      5-min Rain = 0
KMD1 131303Z 23003KT M04/M04 A3024 RMK A01 T10401041  RH  099%=      5-min Rain = 0
KMD1 131304Z 23003KT M04/M04 A3024 RMK A01 T10401042  RH  099%=      5-min Rain = 0
KMD1 131305Z 23003KT M04/M04 A3024 RMK A01 T10401042  RH  099%=      5-min Rain = 0
KMD1 131306Z 23003KT M04/M04 A3024 RMK A01 T10391041  RH  099%=      5-min Rain = 0
KMD1 131307Z 24003KT M04/M04 A3024 RMK A01 T10391041  RH  099%=      5-min Rain = 0
KMD1 131308Z 24003KT M04/M04 A3024 RMK A01 T10401041  RH  099%=      5-min Rain = 0
KMD1 131309Z 24003KT M04/M04 A3024 RMK A01 T10401042  RH  098%=      5-min Rain = 0
KMD1 131310Z 24003KT M04/M04 A3024 RMK A01 T10401043  RH  098%=      5-min Rain = 0
KMD1 131311Z 24003KT M04/M04 A3024 RMK A01 T10411043  RH  098%=      5-min Rain = 0
KMD1 131312Z 24003KT M04/M04 A3024 RMK A01 T10411044  RH  098%=      5-min Rain = 0
KMD1 131313Z 24003KT M04/M04 A3024 RMK A01 T10421044  RH  098%=      5-min Rain = 0
KMD1 131314Z 24003KT M04/M04 A3024 RMK A01 T10421044  RH  098%=      5-min Rain = 0
KMD1 131315Z 25003KT M04/M04 A3024 RMK A01 T10421044  RH  098%=      5-min Rain = 0
KMD1 131316Z 25003KT M04/M04 A3024 RMK A01 T10421044  RH  098%=      5-min Rain = 0
KMD1 131317Z 25003KT M04/M04 A3024 RMK A01 T10421044  RH  099%=      5-min Rain = 0
KMD1 131318Z 24003KT M04/M04 A3023 RMK A01 T10421044  RH  099%=      5-min Rain = 0
KMD1 131319Z 24003KT M04/M04 A3023 RMK A01 T10421044  RH  099%=      5-min Rain = 0
KMD1 131320Z 25003KT M04/M04 A3023 RMK A01 T10421044  RH  099%=      5-min Rain = 0
KMD1 131321Z 25003KT M04/M04 A3023 RMK A01 T10421044  RH  099%=      5-min Rain = 0
KMD1 131322Z 24003KT M04/M04 A3023 RMK A01 T10421044  RH  099%=      5-min Rain = 0
KMD1 131323Z 24003KT M04/M04 A3023 RMK A01 T10421044  RH  099%=      5-min Rain = 0
KMD1 131324Z 24003KT M04/M04 A3023 RMK A01 T10421044  RH  099%=      5-min Rain = 0
KMD1 131325Z 23003KT M04/M04 A3023 RMK A01 T10421044  RH  099%=      5-min Rain = 0
KMD1 131326Z 23003KT M04/M04 A3023 RMK A01 T10421044  RH  099%=      5-min Rain = 0
KMD1 131327Z 23003KT M04/M04 A3023 RMK A01 T10421044  RH  099%=      5-min Rain = 0
KMD1 131328Z 23003KT M04/M04 A3023 RMK A01 T10411043  RH  099%=      5-min Rain = 0
KMD1 131329Z 23003KT M04/M04 A3023 RMK A01 T10411043  RH  099%=      5-min Rain = 0
KMD1 131330Z 23003KT M04/M04 A3023 RMK A01 T10411043  RH  099%=      5-min Rain = 0
KMD1 131331Z 23003KT M04/M04 A3023 RMK A01 T10411043  RH  099%=      5-min Rain = 0
KMD1 131332Z 22003KT M04/M04 A3023 RMK A01 T10411043  RH  099%=      5-min Rain = 0
KMD1 131333Z 22003KT M04/M04 A3023 RMK A01 T10411043  RH  099%=      5-min Rain = 0
KMD1 131334Z 22003KT M04/M04 A3023 RMK A01 T10411043  RH  099%=      5-min Rain = 0
KMD1 131335Z 23003KT M04/M04 A3023 RMK A01 T10411043  RH  099%=      5-min Rain = 0
KMD1 131336Z 23003KT M04/M04 A3023 RMK A01 T10411043  RH  099%=      5-min Rain = 0
KMD1 131337Z 23003KT M04/M04 A3022 RMK A01 T10411043  RH  099%=      5-min Rain = 0
KMD1 131338Z 23003KT M04/M04 A3022 RMK A01 T10411043  RH  099%=      5-min Rain = 0
KMD1 131339Z 23003KT M04/M04 A3022 RMK A01 T10411043  RH  099%=      5-min Rain = 0
KMD1 131340Z 23003KT M04/M04 A3022 RMK A01 T10411043  RH  099%=      5-min Rain = 0
KMD1 131341Z 23003KT M04/M04 A3022 RMK A01 T10411043  RH  099%=      5-min Rain = 0
KMD1 131342Z 23003KT M04/M04 A3022 RMK A01 T10411043  RH  099%=      5-min Rain = 0
KMD1 131343Z 23003KT M04/M04 A3022 RMK A01 T10411043  RH  099%=      5-min Rain = 0
KMD1 131344Z 24003KT M04/M04 A3022 RMK A01 T10411042  RH  099%=      5-min Rain = 0
KMD1 131345Z 24003KT M04/M04 A3022 RMK A01 T10411042  RH  099%=      5-min Rain = 0
KMD1 131346Z 24003KT M04/M04 A3022 RMK A01 T10411042  RH  099%=      5-min Rain = 0
KMD1 131347Z 24004KT M04/M04 A3022 RMK A01 T10401042  RH  099%=      5-min Rain = 0
KMD1 131348Z 25004KT M04/M04 A3022 RMK A01 T10391041  RH  099%=      5-min Rain = 0
KMD1 131349Z 25004KT M04/M04 A3022 RMK A01 T10391041  RH  099%=      5-min Rain = 0
KMD1 131350Z 25004KT M04/M04 A3022 RMK A01 T10381040  RH  099%=      5-min Rain = 0
KMD1 131351Z 25005KT M04/M04 A3022 RMK A01 T10381039  RH  099%=      5-min Rain = 0
KMD1 131352Z 25005KT M04/M04 A3022 RMK A01 T10371038  RH  099%=      5-min Rain = 0
KMD1 131353Z 24004KT M04/M04 A3022 RMK A01 T10361037  RH  099%=      5-min Rain = 0
KMD1 131354Z 24004KT M04/M04 A3022 RMK A01 T10351036  RH  099%=      5-min Rain = 0
KMD1 131355Z 24004KT M04/M04 A3022 RMK A01 T10351036  RH  099%=      5-min Rain = 0
KMD1 131356Z 24004KT M03/M04 A3022 RMK A01 T10341036  RH  099%=      5-min Rain = 0
KMD1 131357Z 24004KT M03/M04 A3022 RMK A01 T10341036  RH  099%=      5-min Rain = 0
KMD1 131358Z 24005KT M03/M04 A3022 RMK A01 T10341036  RH  098%=      5-min Rain = 0
KMD1 131359Z 24005KT M03/M04 A3022 RMK A01 T10341036  RH  098%=      5-min Rain = 0
KMD1 131400Z 24005KT M03/M04 A3022 RMK A01 T10331036  RH  098%=      5-min Rain = 0
KMD1 131401Z 24005KT M03/M04 A3022 RMK A01 T10331036  RH  098%=      5-min Rain = 0
KMD1 131402Z 24005KT M03/M04 A3022 RMK A01 T10331036  RH  098%=      5-min Rain = 0
KMD1 131403Z 24005KT M03/M04 A3021 RMK A01 T10341037  RH  098%=      5-min Rain = 0
KMD1 131404Z 24005KT M03/M04 A3021 RMK A01 T10331037  RH  098%=      5-min Rain = 0
KMD1 131405Z 24005KT M03/M04 A3021 RMK A01 T10331037  RH  098%=      5-min Rain = 0
KMD1 131406Z 25005KT M03/M04 A3021 RMK A01 T10331036  RH  098%=      5-min Rain = 0
KMD1 131407Z 24005KT M03/M04 A3022 RMK A01 T10331036  RH  098%=      5-min Rain = 0
KMD1 131408Z 25005KT M03/M04 A3022 RMK A01 T10331036  RH  097%=      5-min Rain = 0
KMD1 131409Z 25005KT M03/M04 A3022 RMK A01 T10331036  RH  097%=      5-min Rain = 0
KMD1 131410Z 25005KT M03/M04 A3022 RMK A01 T10321036  RH  097%=      5-min Rain = 0
KMD1 131411Z 25005KT M03/M04 A3022 RMK A01 T10321036  RH  097%=      5-min Rain = 0
KMD1 131412Z 25005KT M03/M04 A3022 RMK A01 T10311035  RH  097%=      5-min Rain = 0
KMD1 131413Z 24006KT M03/M03 A3021 RMK A01 T10311034  RH  097%=      5-min Rain = 0
KMD1 131414Z 25006KT M03/M03 A3021 RMK A01 T10301034  RH  097%=      5-min Rain = 0
KMD1 131415Z 25006KT M03/M03 A3021 RMK A01 T10291033  RH  097%=      5-min Rain = 0
KMD1 131416Z 25006KT M03/M03 A3021 RMK A01 T10291032  RH  097%=      5-min Rain = 0
KMD1 131417Z 25006KT M03/M03 A3021 RMK A01 T10281032  RH  097%=      5-min Rain = 0
KMD1 131418Z 25006KT M03/M03 A3021 RMK A01 T10271031  RH  097%=      5-min Rain = 0
KMD1 131419Z 25007KT M03/M03 A3021 RMK A01 T10261030  RH  097%=      5-min Rain = 0
KMD1 131420Z 25006KT M03/M03 A3021 RMK A01 T10251029  RH  097%=      5-min Rain = 0
KMD1 131421Z 25006KT M03/M03 A3021 RMK A01 T10251029  RH  097%=      5-min Rain = 0
KMD1 131422Z 25006KT M02/M03 A3021 RMK A01 T10241028  RH  097%=      5-min Rain = 0
KMD1 131423Z 25005KT M02/M03 A3021 RMK A01 T10231027  RH  097%=      5-min Rain = 0
KMD1 131424Z 26005KT M02/M03 A3021 RMK A01 T10231027  RH  097%=      5-min Rain = 0
KMD1 131425Z 26005KT M02/M03 A3021 RMK A01 T10231027  RH  097%=      5-min Rain = 0
KMD1 131426Z 25005KT M02/M03 A3021 RMK A01 T10221027  RH  097%=      5-min Rain = 0
KMD1 131427Z 26005KT M02/M03 A3021 RMK A01 T10221027  RH  096%=      5-min Rain = 0
KMD1 131428Z 26006KT M02/M03 A3021 RMK A01 T10211026  RH  096%=      5-min Rain = 0
KMD1 131429Z 25006KT M02/M03 A3021 RMK A01 T10211026  RH  096%=      5-min Rain = 0
KMD1 131430Z 26006KT M02/M03 A3021 RMK A01 T10201026  RH  096%=      5-min Rain = 0
KMD1 131431Z 26006KT M02/M03 A3021 RMK A01 T10201026  RH  096%=      5-min Rain = 0
KMD1 131432Z 26006KT M02/M03 A3021 RMK A01 T10201026  RH  096%=      5-min Rain = 0
KMD1 131433Z 26006KT M02/M03 A3021 RMK A01 T10191025  RH  096%=      5-min Rain = 0
KMD1 131434Z 26005KT M02/M03 A3021 RMK A01 T10191025  RH  096%=      5-min Rain = 0
KMD1 131435Z 26005KT M02/M03 A3021 RMK A01 T10191025  RH  096%=      5-min Rain = 0
KMD1 131436Z 26005KT M02/M03 A3021 RMK A01 T10191025  RH  096%=      5-min Rain = 0
KMD1 131437Z 26006KT M02/M03 A3021 RMK A01 T10191025  RH  095%=      5-min Rain = 0
KMD1 131438Z 26005KT M02/M03 A3021 RMK A01 T10191025  RH  095%=      5-min Rain = 0
KMD1 131439Z 26005KT M02/M03 A3021 RMK A01 T10191025  RH  095%=      5-min Rain = 0
KMD1 131440Z 26004KT M02/M03 A3021 RMK A01 T10191025  RH  095%=      5-min Rain = 0
KMD1 131441Z 25005KT M02/M03 A3021 RMK A01 T10191025  RH  096%=      5-min Rain = 0
KMD1 131442Z 26005KT M02/M03 A3021 RMK A01 T10191025  RH  096%=      5-min Rain = 0
KMD1 131443Z 25005KT M02/M02 A3021 RMK A01 T10181024  RH  096%=      5-min Rain = 0
KMD1 131444Z 25005KT M02/M02 A3021 RMK A01 T10181024  RH  096%=      5-min Rain = 0
KMD1 131445Z 25005KT M02/M02 A3021 RMK A01 T10181024  RH  096%=      5-min Rain = 0
KMD1 131446Z 25006KT M02/M02 A3021 RMK A01 T10171023  RH  096%=      5-min Rain = 0
KMD1 131447Z 25006KT M02/M02 A3021 RMK A01 T10171023  RH  096%=      5-min Rain = 0
KMD1 131448Z 25005KT M02/M02 A3021 RMK A01 T10171023  RH  096%=      5-min Rain = 0
KMD1 131449Z 25005KT M02/M02 A3021 RMK A01 T10171023  RH  096%=      5-min Rain = 0
KMD1 131450Z 25006KT M02/M02 A3021 RMK A01 T10161021  RH  096%=      5-min Rain = 0
KMD1 131451Z 25005KT M02/M02 A3021 RMK A01 T10151021  RH  096%=      5-min Rain = 0
KMD1 131452Z 25005KT M02/M02 A3021 RMK A01 T10151021  RH  096%=      5-min Rain = 0
KMD1 131453Z 25005KT M02/M02 A3021 RMK A01 T10151021  RH  096%=      5-min Rain = 0
KMD1 131454Z 25005KT M01/M02 A3021 RMK A01 T10141020  RH  096%=      5-min Rain = 0
KMD1 131455Z 26005KT M01/M02 A3021 RMK A01 T10131019  RH  096%=      5-min Rain = 0
KMD1 131456Z 26004KT M01/M02 A3021 RMK A01 T10131019  RH  096%=      5-min Rain = 0
KMD1 131457Z 26005KT M01/M02 A3021 RMK A01 T10121017  RH  096%=      5-min Rain = 0
KMD1 131458Z 25004KT M01/M02 A3021 RMK A01 T10111017  RH  096%=      5-min Rain = 0
KMD1 131459Z 25005KT M01/M02 A3021 RMK A01 T10101016  RH  096%=      5-min Rain = 0
KMD1 131500Z 25004KT M01/M02 A3021 RMK A01 T10101016  RH  095%=      5-min Rain = 0
KMD1 131501Z 25004KT M01/M02 A3021 RMK A01 T10091015  RH  096%=      5-min Rain = 0
KMD1 131502Z 25005KT M01/M01 A3021 RMK A01 T10071014  RH  096%=      5-min Rain = 0
KMD1 131503Z 25005KT M01/M01 A3021 RMK A01 T10071013  RH  095%=      5-min Rain = 0
KMD1 131504Z 25005KT M01/M01 A3021 RMK A01 T10071014  RH  095%=      5-min Rain = 0
KMD1 131505Z 24005KT M01/M01 A3021 RMK A01 T10061013  RH  095%=      5-min Rain = 0
KMD1 131506Z 25005KT M01/M01 A3021 RMK A01 T10051013  RH  095%=      5-min Rain = 0
KMD1 131507Z 25005KT M01/M01 A3021 RMK A01 T10051013  RH  095%=      5-min Rain = 0
KMD1 131508Z 25004KT M01/M01 A3021 RMK A01 T10051012  RH  095%=      5-min Rain = 0
KMD1 131509Z 25005KT M01/M01 A3021 RMK A01 T10051012  RH  095%=      5-min Rain = 0
KMD1 131510Z 25005KT M00/M01 A3021 RMK A01 T10041012  RH  095%=      5-min Rain = 0
KMD1 131511Z 25005KT M00/M01 A3021 RMK A01 T10031011  RH  095%=      5-min Rain = 0
KMD1 131512Z 25004KT M00/M01 A3021 RMK A01 T10031011  RH  095%=      5-min Rain = 0
KMD1 131513Z 25005KT M00/M01 A3021 RMK A01 T10031010  RH  095%=      5-min Rain = 0
KMD1 131514Z 25005KT M00/M01 A3021 RMK A01 T10031011  RH  094%=      5-min Rain = 0
KMD1 131515Z 25004KT M00/M01 A3021 RMK A01 T10021011  RH  094%=      5-min Rain = 0
KMD1 131516Z 25004KT M00/M01 A3021 RMK A01 T10011010  RH  094%=      5-min Rain = 0
KMD1 131517Z 25004KT M00/M01 A3021 RMK A01 T10011009  RH  094%=      5-min Rain = 0
KMD1 131518Z 25004KT 00/01 A3021 RMK A01 T00-000-8  RH  094%=      5-min Rain = 0
KMD1 131519Z 25005KT 00/M01 A3021 RMK A01 T00011006  RH  095%=      5-min Rain = 0
KMD1 131520Z 25004KT 00/M01 A3021 RMK A01 T00021006  RH  095%=      5-min Rain = 0
KMD1 131521Z 25004KT 00/M01 A3021 RMK A01 T00021006  RH  094%=      5-min Rain = 0
KMD1 131522Z 25005KT 00/M01 A3021 RMK A01 T00031005  RH  094%=      5-min Rain = 0
KMD1 131523Z 25005KT 00/M01 A302 RMK A01 T00031006  RH  094%=      5-min Rain = 0
KMD1 131524Z 25004KT 00/M01 A302 RMK A01 T00031006  RH  094%=      5-min Rain = 0
KMD1 131525Z 25004KT 00/M01 A302 RMK A01 T00031006  RH  093%=      5-min Rain = 0
KMD1 131526Z 25004KT 00/M01 A302 RMK A01 T00041005  RH  094%=      5-min Rain = 0
KMD1 131527Z 25004KT 01/M00 A302 RMK A01 T00051004  RH  094%=      5-min Rain = 0
KMD1 131528Z 26004KT 01/M00 A302 RMK A01 T00071002  RH  094%=      5-min Rain = 0
KMD1 131529Z 26003KT 01/M00 A302 RMK A01 T00081001  RH  094%=      5-min Rain = 0
KMD1 131530Z 26004KT 01/00 A302 RMK A01 T000900-0  RH  094%=      5-min Rain = 0
KMD1 131531Z 26004KT 01/M00 A302 RMK A01 T00091001  RH  093%=      5-min Rain = 0
KMD1 131532Z 26003KT 01/M00 A302 RMK A01 T00101001  RH  093%=      5-min Rain = 0
KMD1 131533Z 26003KT 01/00 A302 RMK A01 T001100-0  RH  092%=      5-min Rain = 0
KMD1 131534Z 26004KT 01/00 A302 RMK A01 T00120001  RH  093%=      5-min Rain = 0
KMD1 131535Z 25003KT 01/00 A302 RMK A01 T00130002  RH  092%=      5-min Rain = 0
KMD1 131536Z 25003KT 01/00 A302 RMK A01 T00140002  RH  092%=      5-min Rain = 0
KMD1 131537Z 24003KT 02/00 A302 RMK A01 T00150003  RH  092%=      5-min Rain = 0
KMD1 131538Z 25004KT 02/01 A302 RMK A01 T00170006  RH  092%=      5-min Rain = 0
KMD1 131539Z 25004KT 02/01 A302 RMK A01 T00180006  RH  092%=      5-min Rain = 0
KMD1 131540Z 25003KT 02/01 A302 RMK A01 T00200007  RH  092%=      5-min Rain = 0
KMD1 131541Z 25003KT 02/01 A302 RMK A01 T00210008  RH  091%=      5-min Rain = 0
KMD1 131542Z 26004KT 02/01 A302 RMK A01 T00220008  RH  090%=      5-min Rain = 0
KMD1 131543Z 26004KT 02/01 A302 RMK A01 T00220006  RH  089%=      5-min Rain = 0
KMD1 131544Z 25004KT 02/01 A302 RMK A01 T00240007  RH  089%=      5-min Rain = 0
KMD1 131545Z 25004KT 03/01 A302 RMK A01 T00260009  RH  089%=      5-min Rain = 0
KMD1 131546Z 26003KT 03/01 A302 RMK A01 T00260007  RH  088%=      5-min Rain = 0
KMD1 131547Z 25003KT 03/01 A302 RMK A01 T00280010  RH  088%=      5-min Rain = 0
KMD1 131548Z 25004KT 03/01 A302 RMK A01 T00290009  RH  087%=      5-min Rain = 0
KMD1 131549Z 25004KT 03/01 A302 RMK A01 T00290008  RH  087%=      5-min Rain = 0
KMD1 131550Z 26005KT 03/01 A302 RMK A01 T00300010  RH  087%=      5-min Rain = 0
KMD1 131551Z 25005KT 03/01 A302 RMK A01 T00300008  RH  085%=      5-min Rain = 0
KMD1 131552Z 25005KT 03/01 A302 RMK A01 T00320010  RH  086%=      5-min Rain = 0
KMD1 131553Z 26006KT 03/01 A302 RMK A01 T00330009  RH  084%=      5-min Rain = 0
KMD1 131554Z 25006KT 03/01 A302 RMK A01 T00330007  RH  083%=      5-min Rain = 0
KMD1 131555Z 26006KT 03/01 A302 RMK A01 T00330007  RH  083%=      5-min Rain = 0
KMD1 131556Z 26005KT 03/01 A302 RMK A01 T00340008  RH  083%=      5-min Rain = 0
KMD1 131557Z 25006KT 04/01 A302 RMK A01 T00350009  RH  083%=      5-min Rain = 0
KMD1 131558Z 26005KT 04/01 A302 RMK A01 T00360009  RH  083%=      5-min Rain = 0
KMD1 131559Z 25005KT 04/01 A302 RMK A01 T00370011  RH  083%=      5-min Rain = 0
KMD1 131600Z 25005KT 04/01 A302 RMK A01 T00390012  RH  083%=      5-min Rain = 0
KMD1 131601Z 25004KT 04/01 A302 RMK A01 T00400014  RH  083%=      5-min Rain = 0
KMD1 131602Z 25006KT 04/01 A302 RMK A01 T00400013  RH  083%=      5-min Rain = 0
KMD1 131603Z 26004KT 04/01 A302 RMK A01 T00410012  RH  081%=      5-min Rain = 0
KMD1 131604Z 25005KT 04/01 A302 RMK A01 T00420014  RH  082%=      5-min Rain = 0
KMD1 131605Z 26006KT 04/01 A302 RMK A01 T00430014  RH  081%=      5-min Rain = 0
KMD1 131606Z 25007KT 04/01 A302 RMK A01 T00440014  RH  081%=      5-min Rain = 0
KMD1 131607Z 26006KT 05/01 A302 RMK A01 T00450012  RH  079%=      5-min Rain = 0
KMD1 131608Z 26005KT 05/01 A302 RMK A01 T00450013  RH  080%=      5-min Rain = 0
KMD1 131609Z 25004KT 05/02 A302 RMK A01 T00470016  RH  080%=      5-min Rain = 0
KMD1 131610Z 25005KT 05/02 A302 RMK A01 T00480017  RH  080%=      5-min Rain = 0
KMD1 131611Z 25006KT 05/02 A302 RMK A01 T00480016  RH  080%=      5-min Rain = 0
KMD1 131612Z 25006KT 05/02 A302 RMK A01 T00480015  RH  079%=      5-min Rain = 0
KMD1 131613Z 25006KT 05/02 A302 RMK A01 T00490016  RH  079%=      5-min Rain = 0
KMD1 131614Z 26005KT 05/02 A302 RMK A01 T00500018  RH  080%=      5-min Rain = 0
KMD1 131615Z 25006KT 05/02 A302 RMK A01 T00510019  RH  080%=      5-min Rain = 0
KMD1 131616Z 25007KT 05/02 A302 RMK A01 T00520018  RH  079%=      5-min Rain = 0
KMD1 131617Z 25006KT 05/02 A302 RMK A01 T00530019  RH  078%=      5-min Rain = 0
KMD1 131618Z 26008KT 05/02 A302 RMK A01 T00540019  RH  078%=      5-min Rain = 0
KMD1 131619Z 25007KT 06/02 A302 RMK A01 T00560017  RH  076%=      5-min Rain = 0
KMD1 131620Z 26007KT 06/02 A302 RMK A01 T00570018  RH  076%=      5-min Rain = 0
KMD1 131621Z 25005KT 06/02 A302 RMK A01 T00610023  RH  077%=      5-min Rain = 0
KMD1 131622Z 26008KT 06/02 A3019 RMK A01 T00630022  RH  075%=      5-min Rain = 0
KMD1 131623Z 26009KT 06/01 A3019 RMK A01 T00630014  RH  071%=      5-min Rain = 0
KMD1 131624Z 26008KT 06/01 A3019 RMK A01 T00640014  RH  071%=      5-min Rain = 0
KMD1 131625Z 26008KT 07/02 A3019 RMK A01 T00650016  RH  071%=      5-min Rain = 0
KMD1 131626Z 26008KT 07/01 A3019 RMK A01 T00660012  RH  068%=      5-min Rain = 0
KMD1 131627Z 25010KT 07/01 A3019 RMK A01 T00670012  RH  068%=      5-min Rain = 0
KMD1 131628Z 26009KT 07/01 A3019 RMK A01 T00670013  RH  068%=      5-min Rain = 0
KMD1 131629Z 25008KT 07/01 A3019 RMK A01 T00670011  RH  068%=      5-min Rain = 0
KMD1 131630Z 25007KT 07/02 A3019 RMK A01 T00690017  RH  070%=      5-min Rain = 0
KMD1 131631Z 25007KT 07/02 A3019 RMK A01 T00700019  RH  070%=      5-min Rain = 0
KMD1 131632Z 25006KT 07/02 A3019 RMK A01 T00710021  RH  070%=      5-min Rain = 0
KMD1 131633Z 24007KT 07/02 A3019 RMK A01 T00710019  RH  069%=      5-min Rain = 0
KMD1 131634Z 25009KT 07/02 A3019 RMK A01 T00720018  RH  069%=      5-min Rain = 0
KMD1 131635Z 26008KT 07/01 A3019 RMK A01 T00710012  RH  066%=      5-min Rain = 0
KMD1 131636Z 25008KT 07/02 A3019 RMK A01 T00710015  RH  067%=      5-min Rain = 0
KMD1 131637Z 25008KT 07/01 A3019 RMK A01 T00710014  RH  067%=      5-min Rain = 0
KMD1 131638Z 25008KT 07/02 A3019 RMK A01 T00720017  RH  068%=      5-min Rain = 0
KMD1 131639Z 25009KT 07/02 A3019 RMK A01 T00730017  RH  068%=      5-min Rain = 0
KMD1 131640Z 25008KT 07/02 A3019 RMK A01 T00740015  RH  066%=      5-min Rain = 0
KMD1 131641Z 25010KT 07/01 A3019 RMK A01 T00740014  RH  065%=      5-min Rain = 0
KMD1 131642Z 25009KT 08/01 A3019 RMK A01 T00750013  RH  065%=      5-min Rain = 0
KMD1 131643Z 25008KT 08/01 A3019 RMK A01 T00750012  RH  064%=      5-min Rain = 0
KMD1 131644Z 25007KT 08/02 A3019 RMK A01 T00760015  RH  065%=      5-min Rain = 0
KMD1 131645Z 26007KT 08/02 A3019 RMK A01 T00780017  RH  065%=      5-min Rain = 0
KMD1 131646Z 26009KT 08/02 A3019 RMK A01 T00790016  RH  064%=      5-min Rain = 0
KMD1 131647Z 27007KT 08/01 A3018 RMK A01 T00790014  RH  063%=      5-min Rain = 0
KMD1 131648Z 25008KT 08/01 A3018 RMK A01 T00790014  RH  064%=      5-min Rain = 0
KMD1 131649Z 26008KT 08/02 A3018 RMK A01 T00800015  RH  064%=      5-min Rain = 0
KMD1 131650Z 25011KT 08/01 A3018 RMK A01 T00810013  RH  062%=      5-min Rain = 0
KMD1 131651Z 26008KT 08/01 A3018 RMK A01 T00810010  RH  061%=      5-min Rain = 0
KMD1 131652Z 25006KT 08/01 A3018 RMK A01 T00810014  RH  063%=      5-min Rain = 0
KMD1 131653Z 25006KT 08/02 A3018 RMK A01 T00840024  RH  066%=      5-min Rain = 0
KMD1 131654Z 26007KT 09/02 A3018 RMK A01 T00860020  RH  063%=      5-min Rain = 0
KMD1 131655Z 26008KT 09/02 A3018 RMK A01 T00860015  RH  061%=      5-min Rain = 0
KMD1 131656Z 25008KT 09/02 A3018 RMK A01 T00860015  RH  061%=      5-min Rain = 0
KMD1 131657Z 26009KT 09/01 A3018 RMK A01 T00860013  RH  060%=      5-min Rain = 0
KMD1 131658Z 26009KT 09/01 A3018 RMK A01 T00870011  RH  059%=      5-min Rain = 0
KMD1 131659Z 25009KT 09/01 A3018 RMK A01 T00870010  RH  058%=      5-min Rain = 0
KMD1 131700Z 26007KT 09/01 A3018 RMK A01 T00880014  RH  060%=      5-min Rain = 0
KMD1 131701Z 26010KT 09/01 A3018 RMK A01 T00900013  RH  058%=      5-min Rain = 0
KMD1 131702Z 25009KT 09/01 A3018 RMK A01 T00910009  RH  057%=      5-min Rain = 0
KMD1 131703Z 25011KT 09/01 A3018 RMK A01 T00920012  RH  058%=      5-min Rain = 0
KMD1 131704Z 26009KT 09/01 A3018 RMK A01 T00930007  RH  055%=      5-min Rain = 0
KMD1 131705Z 25009KT 09/01 A3018 RMK A01 T00920007  RH  055%=      5-min Rain = 0
KMD1 131706Z 26008KT 09/01 A3018 RMK A01 T00940014  RH  057%=      5-min Rain = 0
KMD1 131707Z 25008KT 10/01 A3018 RMK A01 T00960013  RH  056%=      5-min Rain = 0
KMD1 131708Z 25009KT 10/01 A3018 RMK A01 T00980014  RH  056%=      5-min Rain = 0
KMD1 131709Z 25008KT 10/01 A3018 RMK A01 T00980011  RH  055%=      5-min Rain = 0
KMD1 131710Z 26008KT 10/01 A3018 RMK A01 T00980013  RH  055%=      5-min Rain = 0
KMD1 131711Z 26008KT 10/01 A3018 RMK A01 T00990013  RH  055%=      5-min Rain = 0
KMD1 131712Z 25007KT 10/01 A3018 RMK A01 T01000010  RH  054%=      5-min Rain = 0
KMD1 131713Z 26007KT 10/01 A3018 RMK A01 T01010014  RH  055%=      5-min Rain = 0
KMD1 131714Z 25010KT 10/01 A3018 RMK A01 T01010007  RH  052%=      5-min Rain = 0
KMD1 131715Z 25009KT 10/01 A3018 RMK A01 T01010006  RH  052%=      5-min Rain = 0
KMD1 131716Z 26006KT 10/02 A3018 RMK A01 T01020016  RH  055%=      5-min Rain = 0
KMD1 131717Z 26008KT 10/01 A3018 RMK A01 T01030010  RH  052%=      5-min Rain = 0
KMD1 131718Z 24006KT 10/01 A3018 RMK A01 T01030007  RH  051%=      5-min Rain = 0
KMD1 131719Z 25008KT 10/02 A3018 RMK A01 T01040015  RH  054%=      5-min Rain = 0
KMD1 131720Z 25009KT 11/01 A3018 RMK A01 T01050012  RH  053%=      5-min Rain = 0
KMD1 131721Z 25007KT 11/01 A3018 RMK A01 T01050013  RH  053%=      5-min Rain = 0
KMD1 131722Z 26006KT 11/01 A3018 RMK A01 T01060013  RH  053%=      5-min Rain = 0
KMD1 131723Z 26007KT 11/01 A3018 RMK A01 T01070014  RH  053%=      5-min Rain = 0
KMD1 131724Z 26006KT 11/02 A3017 RMK A01 T01080017  RH  053%=      5-min Rain = 0
KMD1 131725Z 24008KT 11/02 A3017 RMK A01 T01090017  RH  053%=      5-min Rain = 0
KMD1 131726Z 24009KT 11/01 A3017 RMK A01 T01090009  RH  050%=      5-min Rain = 0
KMD1 131727Z 24008KT 11/01 A3017 RMK A01 T01080008  RH  050%=      5-min Rain = 0
KMD1 131728Z 24008KT 11/01 A3017 RMK A01 T01090011  RH  051%=      5-min Rain = 0
KMD1 131729Z 25007KT 11/02 A3017 RMK A01 T01090016  RH  053%=      5-min Rain = 0
KMD1 131730Z 24007KT 11/02 A3017 RMK A01 T01110016  RH  052%=      5-min Rain = 0
KMD1 131731Z 25007KT 11/02 A3017 RMK A01 T01110015  RH  052%=      5-min Rain = 0
KMD1 131732Z 24007KT 11/02 A3017 RMK A01 T01120019  RH  053%=      5-min Rain = 0
KMD1 131733Z 23008KT 11/01 A3017 RMK A01 T01130014  RH  050%=      5-min Rain = 0
KMD1 131734Z 23009KT 11/01 A3016 RMK A01 T01120011  RH  050%=      5-min Rain = 0
KMD1 131735Z 25009KT 11/01 A3016 RMK A01 T01120010  RH  049%=      5-min Rain = 0
KMD1 131736Z 23007KT 11/01 A3016 RMK A01 T01120008  RH  049%=      5-min Rain = 0
KMD1 131737Z 24008KT 11/01 A3016 RMK A01 T01120010  RH  049%=      5-min Rain = 0
KMD1 131738Z 25010KT 11/01 A3017 RMK A01 T01140010  RH  049%=      5-min Rain = 0
KMD1 131739Z 24009KT 11/01 A3017 RMK A01 T01140012  RH  049%=      5-min Rain = 0
KMD1 131740Z 25009KT 11/01 A3017 RMK A01 T01140014  RH  050%=      5-min Rain = 0
KMD1 131741Z 23008KT 11/01 A3017 RMK A01 T01140006  RH  047%=      5-min Rain = 0
KMD1 131742Z 23007KT 11/01 A3017 RMK A01 T01140007  RH  048%=      5-min Rain = 0
KMD1 131743Z 24007KT 12/01 A3017 RMK A01 T01150010  RH  048%=      5-min Rain = 0
KMD1 131744Z 24008KT 12/01 A3017 RMK A01 T01160008  RH  047%=      5-min Rain = 0
KMD1 131745Z 25009KT 12/01 A3017 RMK A01 T01170007  RH  047%=      5-min Rain = 0
KMD1 131746Z 25006KT 12/01 A3017 RMK A01 T01170007  RH  047%=      5-min Rain = 0
KMD1 131747Z 24005KT 12/02 A3016 RMK A01 T01200016  RH  049%=      5-min Rain = 0
KMD1 131748Z 25005KT 12/01 A3016 RMK A01 T01210008  RH  046%=      5-min Rain = 0
KMD1 131749Z 26009KT 12/01 A3016 RMK A01 T01220008  RH  046%=      5-min Rain = 0
KMD1 131750Z 26007KT 12/M00 A3016 RMK A01 T01231001  RH  043%=      5-min Rain = 0
KMD1 131751Z 26007KT 12/00 A3016 RMK A01 T01240001  RH  043%=      5-min Rain = 0
KMD1 131752Z 26007KT 13/01 A3016 RMK A01 T01250013  RH  046%=      5-min Rain = 0
KMD1 131753Z 26008KT 13/01 A3016 RMK A01 T01270012  RH  045%=      5-min Rain = 0
KMD1 131754Z 27008G13KT 13/01 A3016 RMK A01 T01280005  RH  043%=      5-min Rain = 0
KMD1 131755Z 27007KT 13/01 A3015 RMK A01 T01280006  RH  043%=      5-min Rain = 0
KMD1 131756Z 24008KT 13/02 A3015 RMK A01 T01280015  RH  046%=      5-min Rain = 0
KMD1 131757Z 25010KT 13/01 A3015 RMK A01 T01290005  RH  043%=      5-min Rain = 0
KMD1 131758Z 26010KT 13/M00 A3015 RMK A01 T01271001  RH  041%=      5-min Rain = 0
KMD1 131759Z 26009KT 13/00 A3015 RMK A01 T01270002  RH  042%=      5-min Rain = 0
KMD1 131800Z 24007KT 13/M00 A3015 RMK A01 T01271001  RH  041%=      5-min Rain = 0
KMD1 131801Z 24008KT 13/01 A3015 RMK A01 T01280010  RH  044%=      5-min Rain = 0
KMD1 131802Z 24009KT 13/00 A3014 RMK A01 T01290003  RH  042%=      5-min Rain = 0
KMD1 131803Z 25010KT 13/01 A3014 RMK A01 T01300009  RH  044%=      5-min Rain = 0
KMD1 131804Z 25010KT 13/00 A3014 RMK A01 T01300002  RH  041%=      5-min Rain = 0
KMD1 131805Z 24011KT 13/M00 A3014 RMK A01 T01291001  RH  041%=      5-min Rain = 0
KMD1 131806Z 24011KT 13/M00 A3014 RMK A01 T01291001  RH  041%=      5-min Rain = 0
KMD1 131807Z 24013KT 13/M00 A3014 RMK A01 T01281002  RH  041%=      5-min Rain = 0
KMD1 131808Z 24012KT 13/M00 A3014 RMK A01 T01281004  RH  040%=      5-min Rain = 0
KMD1 131809Z 24009KT 13/00 A3014 RMK A01 T01280001  RH  042%=      5-min Rain = 0
KMD1 131810Z 25008KT 13/01 A3014 RMK A01 T01300009  RH  044%=      5-min Rain = 0
KMD1 131811Z 23010KT 13/01 A3014 RMK A01 T01320008  RH  043%=      5-min Rain = 0
KMD1 131812Z 24012KT 13/M00 A3013 RMK A01 T01331002  RH  039%=      5-min Rain = 0
KMD1 131813Z 24011KT 13/00 A3013 RMK A01 T01320002  RH  041%=      5-min Rain = 0
KMD1 131814Z 24012KT 13/M00 A3013 RMK A01 T01321001  RH  040%=      5-min Rain = 0
KMD1 131815Z 25010KT 13/00 A3013 RMK A01 T01320000  RH  040%=      5-min Rain = 0
KMD1 131816Z 24010KT 13/00 A3013 RMK A01 T01320001  RH  041%=      5-min Rain = 0
KMD1 131817Z 24010KT 13/M00 A3013 RMK A01 T01331002  RH  040%=      5-min Rain = 0
KMD1 131818Z 26009KT 13/M00 A3013 RMK A01 T01321002  RH  040%=      5-min Rain = 0
KMD1 131819Z 25009KT 13/00 A3013 RMK A01 T01330000  RH  040%=      5-min Rain = 0
KMD1 131820Z 25009KT 13/00 A3013 RMK A01 T01340002  RH  040%=      5-min Rain = 0
KMD1 131821Z 24009KT 14/00 A3013 RMK A01 T01350000  RH  040%=      5-min Rain = 0
KMD1 131822Z 24008KT 14/00 A3013 RMK A01 T01360003  RH  040%=      5-min Rain = 0
KMD1 131823Z 23007KT 14/01 A3013 RMK A01 T01360007  RH  041%=      5-min Rain = 0
KMD1 131824Z 23010KT 14/01 A3013 RMK A01 T01390010  RH  041%=      5-min Rain = 0
KMD1 131825Z 23010KT 14/01 A3013 RMK A01 T01400005  RH  040%=      5-min Rain = 0
KMD1 131826Z 24011KT 14/00 A3012 RMK A01 T01390001  RH  039%=      5-min Rain = 0
KMD1 131827Z 24009KT 14/00 A3013 RMK A01 T01380000  RH  039%=      5-min Rain = 0
KMD1 131828Z 24008KT 14/00 A3013 RMK A01 T01370003  RH  040%=      5-min Rain = 0
KMD1 131829Z 25009KT 14/01 A3012 RMK A01 T01380006  RH  041%=      5-min Rain = 0
KMD1 131830Z 24010KT 14/M00 A3012 RMK A01 T01391002  RH  038%=      5-min Rain = 0
KMD1 131831Z 23010KT 14/M01 A3012 RMK A01 T01381005  RH  037%=      5-min Rain = 0
KMD1 131832Z 23011KT 14/M00 A3012 RMK A01 T01381002  RH  038%=      5-min Rain = 0
KMD1 131833Z 23012KT 14/M01 A3012 RMK A01 T01381006  RH  037%=      5-min Rain = 0
KMD1 131834Z 23010KT 14/M01 A3012 RMK A01 T01381005  RH  037%=      5-min Rain = 0
KMD1 131835Z 23009KT 14/M00 A3012 RMK A01 T01391003  RH  038%=      5-min Rain = 0
KMD1 131836Z 24012KT 14/00 A3012 RMK A01 T01410000  RH  038%=      5-min Rain = 0
KMD1 131837Z 25011KT 14/M00 A3012 RMK A01 T01411002  RH  037%=      5-min Rain = 0
KMD1 131838Z 25008KT 14/00 A3012 RMK A01 T014000-0  RH  038%=      5-min Rain = 0
KMD1 131839Z 26007KT 14/M00 A3012 RMK A01 T01401001  RH  038%=      5-min Rain = 0
KMD1 131840Z 24009KT 14/00 A3012 RMK A01 T01410003  RH  039%=      5-min Rain = 0
KMD1 131841Z 24007KT 14/00 A3012 RMK A01 T014200-0  RH  038%=      5-min Rain = 0
KMD1 131842Z 24012KT 14/01 A3012 RMK A01 T01440005  RH  039%=      5-min Rain = 0
KMD1 131843Z 25011KT 14/00 A3012 RMK A01 T01440000  RH  037%=      5-min Rain = 0
KMD1 131844Z 24010KT 14/M00 A3011 RMK A01 T01431003  RH  037%=      5-min Rain = 0
KMD1 131845Z 23011KT 14/M01 A3011 RMK A01 T01421009  RH  035%=      5-min Rain = 0
KMD1 131846Z 24009KT 14/M01 A3011 RMK A01 T01421007  RH  036%=      5-min Rain = 0
KMD1 131847Z 23011KT 14/M00 A3011 RMK A01 T01431001  RH  037%=      5-min Rain = 0
KMD1 131848Z 24012KT 15/M01 A3011 RMK A01 T01451005  RH  036%=      5-min Rain = 0
KMD1 131849Z 24011KT 15/M01 A3011 RMK A01 T01451005  RH  036%=      5-min Rain = 0
KMD1 131850Z 24012KT 14/M01 A3011 RMK A01 T01441005  RH  036%=      5-min Rain = 0
KMD1 131851Z 24011KT 14/M01 A3011 RMK A01 T01441005  RH  036%=      5-min Rain = 0
KMD1 131852Z 23012KT 14/M01 A3011 RMK A01 T01431005  RH  036%=      5-min Rain = 0
KMD1 131853Z 23012KT 14/M01 A3011 RMK A01 T01441010  RH  035%=      5-min Rain = 0
KMD1 131854Z 24010KT 14/M00 A3011 RMK A01 T01441002  RH  037%=      5-min Rain = 0
KMD1 131855Z 24011KT 14/M01 A3011 RMK A01 T01441006  RH  036%=      5-min Rain = 0
KMD1 131856Z 24010KT 14/M01 A3011 RMK A01 T01441006  RH  036%=      5-min Rain = 0
KMD1 131857Z 25010KT 15/00 A301 RMK A01 T01450000  RH  037%=      5-min Rain = 0
KMD1 131858Z 24010KT 15/M00 A301 RMK A01 T01461001  RH  036%=      5-min Rain = 0
KMD1 131859Z 24010KT 15/M01 A301 RMK A01 T01471008  RH  035%=      5-min Rain = 0
KMD1 131900Z 25009KT 15/00 A301 RMK A01 T01470003  RH  037%=      5-min Rain = 0
KMD1 131901Z 24007KT 15/01 A301 RMK A01 T01490005  RH  037%=      5-min Rain = 0
KMD1 131902Z 23011KT 15/00 A301 RMK A01 T01500002  RH  036%=      5-min Rain = 0
KMD1 131903Z 24011KT 15/M01 A301 RMK A01 T01501006  RH  034%=      5-min Rain = 0
KMD1 131904Z 25010KT 15/M00 A301 RMK A01 T01491003  RH  035%=      5-min Rain = 0
KMD1 131905Z 23011KT 15/00 A301 RMK A01 T01490000  RH  036%=      5-min Rain = 0
KMD1 131906Z 22012KT 15/M00 A301 RMK A01 T01501003  RH  035%=      5-min Rain = 0
KMD1 131907Z 22011KT 15/M01 A301 RMK A01 T01501012  RH  033%=      5-min Rain = 0
KMD1 131908Z 24012KT 15/M01 A301 RMK A01 T01501007  RH  034%=      5-min Rain = 0
KMD1 131909Z 23008KT 15/00 A301 RMK A01 T01520004  RH  036%=      5-min Rain = 0
KMD1 131910Z 24011KT 15/M01 A301 RMK A01 T01531006  RH  034%=      5-min Rain = 0
KMD1 131911Z 24010KT 15/M01 A301 RMK A01 T01531008  RH  033%=      5-min Rain = 0
KMD1 131912Z 22009KT 15/M01 A301 RMK A01 T01521007  RH  034%=      5-min Rain = 0
KMD1 131913Z 24011KT 15/M00 A301 RMK A01 T01531003  RH  034%=      5-min Rain = 0
KMD1 131914Z 23009KT 15/M00 A301 RMK A01 T01541004  RH  034%=      5-min Rain = 0
KMD1 131915Z 25009KT 15/00 A301 RMK A01 T01540000  RH  035%=      5-min Rain = 0
KMD1 131916Z 24009KT 16/00 A301 RMK A01 T01550001  RH  035%=      5-min Rain = 0
KMD1 131917Z 24013KT 16/M01 A3009 RMK A01 T01551005  RH  034%=      5-min Rain = 0
KMD1 131918Z 24008KT 15/M00 A3009 RMK A01 T01541003  RH  034%=      5-min Rain = 0
KMD1 131919Z 23010KT 15/M00 A3009 RMK A01 T01541004  RH  034%=      5-min Rain = 0
KMD1 131920Z 23010KT 16/M01 A3009 RMK A01 T01551007  RH  033%=      5-min Rain = 0
KMD1 131921Z 24012KT 16/M01 A3009 RMK A01 T01551011  RH  032%=      5-min Rain = 0
KMD1 131922Z 25012KT 16/M01 A3009 RMK A01 T01551013  RH  032%=      5-min Rain = 0
KMD1 131923Z 26012KT 15/M02 A3009 RMK A01 T01541015  RH  031%=      5-min Rain = 0
KMD1 131924Z 26010KT 15/M01 A3009 RMK A01 T01531014  RH  032%=      5-min Rain = 0
KMD1 131925Z 25006KT 15/M01 A3009 RMK A01 T01531014  RH  032%=      5-min Rain = 0
KMD1 131926Z 23005KT 15/M00 A3009 RMK A01 T01541003  RH  034%=      5-min Rain = 0
KMD1 131927Z 25008G13KT 16/00 A3009 RMK A01 T01580000  RH  034%=      5-min Rain = 0
KMD1 131928Z 24012KT 16/M00 A3009 RMK A01 T01601004  RH  033%=      5-min Rain = 0
KMD1 131929Z 24009KT 16/M02 A3009 RMK A01 T01571016  RH  030%=      5-min Rain = 0
KMD1 131930Z 25007KT 16/M01 A3009 RMK A01 T01551014  RH  031%=      5-min Rain = 0
KMD1 131931Z 26008KT 16/M01 A3009 RMK A01 T01551012  RH  032%=      5-min Rain = 0
KMD1 131932Z 25007KT 16/M01 A3009 RMK A01 T01551012  RH  032%=      5-min Rain = 0
KMD1 131933Z 24011KT 16/M01 A3008 RMK A01 T01571006  RH  033%=      5-min Rain = 0
KMD1 131934Z 24010KT 16/M01 A3008 RMK A01 T01571011  RH  032%=      5-min Rain = 0
KMD1 131935Z 23009KT 16/M01 A3009 RMK A01 T01571014  RH  031%=      5-min Rain = 0
KMD1 131936Z 23008KT 16/M02 A3008 RMK A01 T01571016  RH  031%=      5-min Rain = 0
KMD1 131937Z 23011KT 16/M01 A3008 RMK A01 T01571012  RH  031%=      5-min Rain = 0
KMD1 131938Z 24009KT 16/M01 A3008 RMK A01 T01591006  RH  032%=      5-min Rain = 0
KMD1 131939Z 24010KT 16/M01 A3008 RMK A01 T01591007  RH  032%=      5-min Rain = 0
KMD1 131940Z 24009KT 16/M01 A3008 RMK A01 T01591014  RH  031%=      5-min Rain = 0
KMD1 131941Z 24009KT 16/M01 A3008 RMK A01 T01591005  RH  033%=      5-min Rain = 0
KMD1 131942Z 23011KT 16/M00 A3008 RMK A01 T01611003  RH  033%=      5-min Rain = 0
KMD1 131943Z 24013KT 16/M01 A3008 RMK A01 T01621013  RH  030%=      5-min Rain = 0
KMD1 131944Z 24013KT 16/M02 A3008 RMK A01 T01591016  RH  030%=      5-min Rain = 0
KMD1 131945Z 23010KT 16/M02 A3008 RMK A01 T01581017  RH  030%=      5-min Rain = 0
KMD1 131946Z 24007KT 16/M01 A3008 RMK A01 T01571013  RH  031%=      5-min Rain = 0
KMD1 131947Z 24006KT 16/M01 A3008 RMK A01 T01581010  RH  032%=      5-min Rain = 0
KMD1 131948Z 24008G14KT 16/M01 A3008 RMK A01 T01591009  RH  032%=      5-min Rain = 0
KMD1 131949Z 25010KT 16/M01 A3008 RMK A01 T01601009  RH  032%=      5-min Rain = 0
KMD1 131950Z 22009KT 16/M01 A3008 RMK A01 T01601007  RH  032%=      5-min Rain = 0
KMD1 131951Z 22011KT 16/M01 A3008 RMK A01 T01601010  RH  031%=      5-min Rain = 0
KMD1 131952Z 23013KT 16/M02 A3008 RMK A01 T01611015  RH  030%=      5-min Rain = 0
KMD1 131953Z 23010KT 16/M02 A3008 RMK A01 T01601018  RH  030%=      5-min Rain = 0
KMD1 131954Z 23010KT 16/M01 A3008 RMK A01 T01601013  RH  031%=      5-min Rain = 0
KMD1 131955Z 23008KT 16/M01 A3008 RMK A01 T01601011  RH  031%=      5-min Rain = 0
KMD1 131956Z 24008KT 16/M01 A3008 RMK A01 T01611011  RH  031%=      5-min Rain = 0
KMD1 131957Z 24008KT 16/M01 A3008 RMK A01 T01611013  RH  030%=      5-min Rain = 0
KMD1 131958Z 23008KT 16/M01 A3008 RMK A01 T01621012  RH  030%=      5-min Rain = 0
KMD1 131959Z 23011KT 16/M01 A3007 RMK A01 T01631010  RH  031%=      5-min Rain = 0
KMD1 132000Z 22011KT 16/M02 A3007 RMK A01 T01621020  RH  029%=      5-min Rain = 0
KMD1 132001Z 22011KT 16/M01 A3007 RMK A01 T01631013  RH  030%=      5-min Rain = 0
KMD1 132002Z 24011KT 16/M01 A3007 RMK A01 T01641011  RH  030%=      5-min Rain = 0
KMD1 132003Z 23012KT 17/M01 A3007 RMK A01 T01651010  RH  030%=      5-min Rain = 0
KMD1 132004Z 24012KT 16/M02 A3007 RMK A01 T01641018  RH  029%=      5-min Rain = 0
KMD1 132005Z 23010KT 16/M02 A3007 RMK A01 T01631015  RH  030%=      5-min Rain = 0
KMD1 132006Z 24011KT 16/M01 A3007 RMK A01 T01631007  RH  031%=      5-min Rain = 0
KMD1 132007Z 24010KT 16/M02 A3007 RMK A01 T01631015  RH  030%=      5-min Rain = 0
KMD1 132008Z 23011KT 16/M01 A3007 RMK A01 T01621014  RH  030%=      5-min Rain = 0
KMD1 132009Z 25012KT 16/M02 A3007 RMK A01 T01631015  RH  030%=      5-min Rain = 0
KMD1 132010Z 24012KT 16/M02 A3007 RMK A01 T01621018  RH  029%=      5-min Rain = 0
KMD1 132011Z 25010KT 16/M02 A3007 RMK A01 T01621015  RH  030%=      5-min Rain = 0
KMD1 132012Z 24008KT 16/M01 A3007 RMK A01 T01621014  RH  030%=      5-min Rain = 0
KMD1 132013Z 24009KT 16/M02 A3007 RMK A01 T01621020  RH  029%=      5-min Rain = 0
KMD1 132014Z 27008KT 16/M02 A3007 RMK A01 T01621017  RH  029%=      5-min Rain = 0
KMD1 132015Z 25007KT 16/M01 A3007 RMK A01 T01631005  RH  032%=      5-min Rain = 0
KMD1 132016Z 23009KT 17/00 A3007 RMK A01 T01660001  RH  033%=      5-min Rain = 0
KMD1 132017Z 23011KT 17/M02 A3006 RMK A01 T01671018  RH  028%=      5-min Rain = 0
KMD1 132018Z 24011KT 17/M02 A3006 RMK A01 T01651023  RH  027%=      5-min Rain = 0
KMD1 132019Z 23010KT 16/M02 A3006 RMK A01 T01641024  RH  028%=      5-min Rain = 0
KMD1 132020Z 23010KT 16/M02 A3006 RMK A01 T01631015  RH  030%=      5-min Rain = 0
KMD1 132021Z 23010KT 16/M02 A3006 RMK A01 T01641017  RH  029%=      5-min Rain = 0
KMD1 132022Z 23010KT 17/M02 A3006 RMK A01 T01651024  RH  027%=      5-min Rain = 0
KMD1 132023Z 24010KT 17/M02 A3006 RMK A01 T01651015  RH  029%=      5-min Rain = 0
KMD1 132024Z 25009KT 17/M01 A3006 RMK A01 T01651014  RH  029%=      5-min Rain = 0
KMD1 132025Z 24009KT 17/M01 A3006 RMK A01 T01661005  RH  031%=      5-min Rain = 0
KMD1 132026Z 25008KT 17/M02 A3006 RMK A01 T01671015  RH  029%=      5-min Rain = 0
KMD1 132027Z 25008KT 17/M01 A3006 RMK A01 T01671012  RH  029%=      5-min Rain = 0
KMD1 132028Z 25007KT 17/M01 A3006 RMK A01 T01681011  RH  030%=      5-min Rain = 0
KMD1 132029Z 24008KT 17/M01 A3006 RMK A01 T01681012  RH  029%=      5-min Rain = 0
KMD1 132030Z 24011KT 17/M02 A3006 RMK A01 T01691018  RH  028%=      5-min Rain = 0
KMD1 132031Z 25013KT 17/M02 A3006 RMK A01 T01691019  RH  028%=      5-min Rain = 0
KMD1 132032Z 26012KT 17/M03 A3005 RMK A01 T01671025  RH  027%=      5-min Rain = 0
KMD1 132033Z 25009KT 17/M02 A3005 RMK A01 T01661022  RH  028%=      5-min Rain = 0
KMD1 132034Z 25009KT 17/M02 A3005 RMK A01 T01661018  RH  028%=      5-min Rain = 0
KMD1 132035Z 26007KT 17/M02 A3005 RMK A01 T01671017  RH  028%=      5-min Rain = 0
KMD1 132036Z 26006KT 17/M01 A3005 RMK A01 T01681014  RH  029%=      5-min Rain = 0
KMD1 132037Z 24007KT 17/M01 A3005 RMK A01 T01691013  RH  029%=      5-min Rain = 0
KMD1 132038Z 25008KT 17/M01 A3005 RMK A01 T01711008  RH  030%=      5-min Rain = 0
KMD1 132039Z 25010KT 17/M00 A3005 RMK A01 T01721004  RH  030%=      5-min Rain = 0
KMD1 132040Z 24011KT 17/M02 A3005 RMK A01 T01731016  RH  028%=      5-min Rain = 0
KMD1 132041Z 24010KT 17/M01 A3005 RMK A01 T01721013  RH  028%=      5-min Rain = 0
KMD1 132042Z 25009KT 17/M02 A3005 RMK A01 T01701021  RH  027%=      5-min Rain = 0
KMD1 132043Z 25008KT 17/M01 A3005 RMK A01 T01691012  RH  029%=      5-min Rain = 0
KMD1 132044Z 25011KT 17/M01 A3005 RMK A01 T01711013  RH  029%=      5-min Rain = 0
KMD1 132045Z 26010KT 17/M02 A3005 RMK A01 T01711021  RH  027%=      5-min Rain = 0
KMD1 132046Z 25008KT 17/M03 A3005 RMK A01 T01701025  RH  026%=      5-min Rain = 0
KMD1 132047Z 26007KT 17/M02 A3005 RMK A01 T01701018  RH  028%=      5-min Rain = 0
KMD1 132048Z 25009KT 17/M02 A3005 RMK A01 T01711022  RH  027%=      5-min Rain = 0
KMD1 132049Z 25009KT 17/M02 A3005 RMK A01 T01711022  RH  027%=      5-min Rain = 0
KMD1 132050Z 25010KT 17/M01 A3005 RMK A01 T01711011  RH  029%=      5-min Rain = 0
KMD1 132051Z 25010KT 17/M02 A3005 RMK A01 T01721016  RH  028%=      5-min Rain = 0
KMD1 132052Z 25009KT 17/M02 A3005 RMK A01 T01711022  RH  027%=      5-min Rain = 0
KMD1 132053Z 25010KT 17/M02 A3005 RMK A01 T01711020  RH  027%=      5-min Rain = 0
KMD1 132054Z 25011KT 17/M02 A3005 RMK A01 T01711016  RH  028%=      5-min Rain = 0
KMD1 132055Z 23010KT 17/M02 A3005 RMK A01 T01711019  RH  027%=      5-min Rain = 0
KMD1 132056Z 22012KT 17/M02 A3005 RMK A01 T01721019  RH  027%=      5-min Rain = 0
KMD1 132057Z 25011KT 17/M03 A3005 RMK A01 T01721025  RH  026%=      5-min Rain = 0
KMD1 132058Z 25011KT 17/M02 A3005 RMK A01 T01721016  RH  028%=      5-min Rain = 0
KMD1 132059Z 24009KT 17/M02 A3005 RMK A01 T01721022  RH  027%=      5-min Rain = 0
KMD1 132100Z 24010KT 17/M02 A3004 RMK A01 T01721017  RH  028%=      5-min Rain = 0
KMD1 132101Z 25009KT 17/M02 A3004 RMK A01 T01721019  RH  027%=      5-min Rain = 0
KMD1 132102Z 25006KT 17/M01 A3004 RMK A01 T01731009  RH  029%=      5-min Rain = 0
KMD1 132103Z 25011KT 18/M01 A3004 RMK A01 T01751008  RH  029%=      5-min Rain = 0
KMD1 132104Z 25011KT 18/M02 A3004 RMK A01 T01751020  RH  026%=      5-min Rain = 0
KMD1 132105Z 24011KT 17/M03 A3004 RMK A01 T01741026  RH  025%=      5-min Rain = 0
KMD1 132106Z 25013KT 17/M03 A3004 RMK A01 T01731025  RH  026%=      5-min Rain = 0
KMD1 132107Z 25012KT 17/M03 A3004 RMK A01 T01721026  RH  026%=      5-min Rain = 0
KMD1 132108Z 25011KT 17/M02 A3004 RMK A01 T01731018  RH  027%=      5-min Rain = 0
KMD1 132109Z 25009KT 17/M02 A3004 RMK A01 T01731023  RH  026%=      5-min Rain = 0
KMD1 132110Z 25010KT 17/M02 A3004 RMK A01 T01731023  RH  026%=      5-min Rain = 0
KMD1 132111Z 25011KT 17/M02 A3004 RMK A01 T01731021  RH  026%=      5-min Rain = 0
KMD1 132112Z 25012KT 17/M02 A3004 RMK A01 T01741021  RH  026%=      5-min Rain = 0
KMD1 132113Z 24011KT 17/M03 A3004 RMK A01 T01741025  RH  026%=      5-min Rain = 0
KMD1 132114Z 24009KT 17/M03 A3004 RMK A01 T01741028  RH  025%=      5-min Rain = 0
KMD1 132115Z 24008KT 17/M02 A3004 RMK A01 T01741022  RH  026%=      5-min Rain = 0
KMD1 132116Z 24007KT 18/M02 A3004 RMK A01 T01751022  RH  026%=      5-min Rain = 0
KMD1 132117Z 24007KT 18/M02 A3004 RMK A01 T01761017  RH  027%=      5-min Rain = 0
KMD1 132118Z 24008KT 18/M02 A3004 RMK A01 T01771017  RH  027%=      5-min Rain = 0
KMD1 132119Z 24009KT 18/M01 A3004 RMK A01 T01781012  RH  027%=      5-min Rain = 0
KMD1 132120Z 23010KT 18/M02 A3004 RMK A01 T01801015  RH  027%=      5-min Rain = 0
KMD1 132121Z 23010KT 18/M02 A3004 RMK A01 T01801021  RH  025%=      5-min Rain = 0
KMD1 132122Z 23009KT 18/M02 A3003 RMK A01 T01801018  RH  026%=      5-min Rain = 0
KMD1 132123Z 23011KT 18/M02 A3003 RMK A01 T01801024  RH  025%=      5-min Rain = 0
KMD1 132124Z 22011KT 18/M03 A3003 RMK A01 T01791025  RH  025%=      5-min Rain = 0
KMD1 132125Z 21010KT 18/M03 A3003 RMK A01 T01781025  RH  025%=      5-min Rain = 0
KMD1 132126Z 21011KT 18/M03 A3003 RMK A01 T01781025  RH  025%=      5-min Rain = 0
KMD1 132127Z 22010KT 18/M03 A3003 RMK A01 T01781027  RH  025%=      5-min Rain = 0
KMD1 132128Z 23008KT 18/M02 A3003 RMK A01 T01791022  RH  025%=      5-min Rain = 0
KMD1 132129Z 23010KT 18/M03 A3003 RMK A01 T01791026  RH  025%=      5-min Rain = 0
KMD1 132130Z 23009KT 18/M03 A3003 RMK A01 T01791025  RH  025%=      5-min Rain = 0
KMD1 132131Z 24009KT 18/M03 A3003 RMK A01 T01801026  RH  024%=      5-min Rain = 0
KMD1 132132Z 24009KT 18/M02 A3003 RMK A01 T01801020  RH  026%=      5-min Rain = 0
KMD1 132133Z 22011KT 18/M02 A3003 RMK A01 T01811024  RH  025%=      5-min Rain = 0
KMD1 132134Z 22011KT 18/M03 A3003 RMK A01 T01811025  RH  025%=      5-min Rain = 0
KMD1 132135Z 23012KT 18/M02 A3003 RMK A01 T01811023  RH  025%=      5-min Rain = 0
KMD1 132136Z 24011KT 18/M03 A3003 RMK A01 T01811026  RH  024%=      5-min Rain = 0
KMD1 132137Z 25010KT 18/M02 A3003 RMK A01 T01801024  RH  025%=      5-min Rain = 0
KMD1 132138Z 22009KT 18/M02 A3003 RMK A01 T01801018  RH  026%=      5-min Rain = 0
KMD1 132139Z 22009KT 18/M03 A3003 RMK A01 T01821028  RH  024%=      5-min Rain = 0
KMD1 132140Z 22006KT 18/M03 A3003 RMK A01 T01811025  RH  024%=      5-min Rain = 0
KMD1 132141Z 24010KT 18/M02 A3003 RMK A01 T01831020  RH  025%=      5-min Rain = 0
KMD1 132142Z 24010KT 18/M03 A3003 RMK A01 T01821034  RH  023%=      5-min Rain = 0
KMD1 132143Z 24010KT 18/M03 A3003 RMK A01 T01801033  RH  023%=      5-min Rain = 0
KMD1 132144Z 24007KT 18/M03 A3003 RMK A01 T01801032  RH  023%=      5-min Rain = 0
KMD1 132145Z 25009KT 18/M02 A3002 RMK A01 T01801023  RH  025%=      5-min Rain = 0
KMD1 132146Z 23011KT 18/M02 A3002 RMK A01 T01801018  RH  026%=      5-min Rain = 0
KMD1 132147Z 24012KT 18/M03 A3002 RMK A01 T01781027  RH  025%=      5-min Rain = 0
KMD1 132148Z 22009KT 18/M03 A3002 RMK A01 T01761028  RH  025%=      5-min Rain = 0
KMD1 132149Z 23009KT 18/M03 A3002 RMK A01 T01751026  RH  025%=      5-min Rain = 0
KMD1 132150Z 25009KT 18/M02 A3002 RMK A01 T01761021  RH  026%=      5-min Rain = 0
KMD1 132151Z 25008KT 18/M02 A3002 RMK A01 T01761022  RH  026%=      5-min Rain = 0
KMD1 132152Z 24010KT 18/M02 A3002 RMK A01 T01781017  RH  027%=      5-min Rain = 0
KMD1 132153Z 24008KT 18/M02 A3002 RMK A01 T01791018  RH  026%=      5-min Rain = 0
KMD1 132154Z 23007KT 18/M02 A3002 RMK A01 T01801023  RH  025%=      5-min Rain = 0
KMD1 132155Z 25006KT 18/M03 A3002 RMK A01 T01811026  RH  024%=      5-min Rain = 0
KMD1 132156Z 25010KT 18/M02 A3002 RMK A01 T01821020  RH  025%=      5-min Rain = 0
KMD1 132157Z 25010KT 18/M02 A3002 RMK A01 T01821024  RH  025%=      5-min Rain = 0
KMD1 132158Z 22008KT 18/M02 A3002 RMK A01 T01821021  RH  025%=      5-min Rain = 0
KMD1 132159Z 22008KT 18/M03 A3002 RMK A01 T01821030  RH  024%=      5-min Rain = 0
KMD1 132200Z 24009KT 18/M03 A3002 RMK A01 T01831028  RH  024%=      5-min Rain = 0
KMD1 132201Z 24010KT 18/M03 A3002 RMK A01 T01831029  RH  023%=      5-min Rain = 0
KMD1 132202Z 24012KT 18/M03 A3002 RMK A01 T01831030  RH  023%=      5-min Rain = 0
KMD1 132203Z 25011KT 18/M03 A3002 RMK A01 T01811030  RH  024%=      5-min Rain = 0
KMD1 132204Z 24009KT 18/M03 A3002 RMK A01 T01801029  RH  024%=      5-min Rain = 0
KMD1 132205Z 24011KT 18/M03 A3002 RMK A01 T01801031  RH  024%=      5-min Rain = 0
KMD1 132206Z 24010KT 18/M03 A3002 RMK A01 T01801032  RH  023%=      5-min Rain = 0
KMD1 132207Z 25010KT 18/M03 A3002 RMK A01 T01801026  RH  025%=      5-min Rain = 0
KMD1 132208Z 25011KT 18/M03 A3002 RMK A01 T01791029  RH  024%=      5-min Rain = 0
KMD1 132209Z 25010KT 18/M03 A3002 RMK A01 T01801027  RH  024%=      5-min Rain = 0
KMD1 132210Z 25011KT 18/M03 A3002 RMK A01 T01791025  RH  025%=      5-min Rain = 0
KMD1 132211Z 24009KT 18/M03 A3002 RMK A01 T01791028  RH  024%=      5-min Rain = 0
KMD1 132212Z 24010KT 18/M02 A3002 RMK A01 T01801023  RH  025%=      5-min Rain = 0
KMD1 132213Z 24009KT 18/M04 A3002 RMK A01 T01801035  RH  023%=      5-min Rain = 0
KMD1 132214Z 24008KT 18/M03 A3002 RMK A01 T01791034  RH  023%=      5-min Rain = 0
KMD1 132215Z 24010KT 18/M03 A3002 RMK A01 T01801027  RH  024%=      5-min Rain = 0
KMD1 132216Z 23009KT 18/M03 A3002 RMK A01 T01801030  RH  024%=      5-min Rain = 0
KMD1 132217Z 23007KT 18/M03 A3002 RMK A01 T01801029  RH  024%=      5-min Rain = 0
KMD1 132218Z 24008KT 18/M02 A3002 RMK A01 T01811022  RH  025%=      5-min Rain = 0
KMD1 132219Z 24011KT 18/M03 A3002 RMK A01 T01811030  RH  024%=      5-min Rain = 0
KMD1 132220Z 23009KT 18/M03 A3002 RMK A01 T01811027  RH  024%=      5-min Rain = 0
KMD1 132221Z 24008KT 18/M03 A3002 RMK A01 T01811029  RH  024%=      5-min Rain = 0
KMD1 132222Z 23008KT 18/M02 A3002 RMK A01 T01801024  RH  025%=      5-min Rain = 0
KMD1 132223Z 23009KT 18/M03 A3002 RMK A01 T01801027  RH  024%=      5-min Rain = 0
KMD1 132224Z 21010KT 18/M03 A3002 RMK A01 T01811030  RH  024%=      5-min Rain = 0
KMD1 132225Z 21010KT 18/M03 A3002 RMK A01 T01801031  RH  024%=      5-min Rain = 0
KMD1 132226Z 21012KT 18/M03 A3002 RMK A01 T01801030  RH  024%=      5-min Rain = 0
KMD1 132227Z 22012KT 18/M04 A3001 RMK A01 T01791035  RH  023%=      5-min Rain = 0
KMD1 132228Z 22011KT 18/M03 A3001 RMK A01 T01781026  RH  025%=      5-min Rain = 0
KMD1 132229Z 23010KT 18/M03 A3001 RMK A01 T01791029  RH  024%=      5-min Rain = 0
KMD1 132230Z 23009KT 18/M03 A3001 RMK A01 T01781028  RH  024%=      5-min Rain = 0
KMD1 132231Z 24009KT 18/M03 A3001 RMK A01 T01781026  RH  025%=      5-min Rain = 0
KMD1 132232Z 24008KT 18/M03 A3001 RMK A01 T01781028  RH  024%=      5-min Rain = 0
KMD1 132233Z 25009KT 18/M03 A3001 RMK A01 T01781026  RH  025%=      5-min Rain = 0
KMD1 132234Z 24008KT 18/M02 A3001 RMK A01 T01781024  RH  025%=      5-min Rain = 0
KMD1 132235Z 24011KT 18/M03 A3001 RMK A01 T01781028  RH  024%=      5-min Rain = 0
KMD1 132236Z 23009KT 18/M03 A3001 RMK A01 T01771032  RH  024%=      5-min Rain = 0
KMD1 132237Z 22010KT 18/M03 A3001 RMK A01 T01771032  RH  024%=      5-min Rain = 0
KMD1 132238Z 23009KT 18/M03 A3001 RMK A01 T01771030  RH  024%=      5-min Rain = 0
KMD1 132239Z 23010KT 18/M03 A3002 RMK A01 T01781032  RH  024%=      5-min Rain = 0
KMD1 132240Z 22010KT 18/M03 A3001 RMK A01 T01781034  RH  023%=      5-min Rain = 0
KMD1 132241Z 22010KT 18/M03 A3001 RMK A01 T01771032  RH  024%=      5-min Rain = 0
KMD1 132242Z 22011KT 18/M03 A3001 RMK A01 T01771032  RH  024%=      5-min Rain = 0
KMD1 132243Z 22010KT 18/M03 A3001 RMK A01 T01771033  RH  024%=      5-min Rain = 0
KMD1 132244Z 22009KT 18/M03 A3001 RMK A01 T01771031  RH  024%=      5-min Rain = 0
KMD1 132245Z 23008KT 18/M03 A3001 RMK A01 T01761027  RH  025%=      5-min Rain = 0
KMD1 132246Z 23007KT 18/M03 A3001 RMK A01 T01761027  RH  025%=      5-min Rain = 0
KMD1 132247Z 22006KT 18/M02 A3001 RMK A01 T01771021  RH  026%=      5-min Rain = 0
KMD1 132248Z 23008KT 18/M02 A3001 RMK A01 T01771022  RH  026%=      5-min Rain = 0
KMD1 132249Z 22008KT 18/M03 A3001 RMK A01 T01771029  RH  024%=      5-min Rain = 0
KMD1 132250Z 21009KT 18/M03 A3001 RMK A01 T01771025  RH  025%=      5-min Rain = 0
KMD1 132251Z 22010KT 18/M03 A3001 RMK A01 T01761028  RH  025%=      5-min Rain = 0
KMD1 132252Z 24010KT 18/M03 A3001 RMK A01 T01761028  RH  025%=      5-min Rain = 0
KMD1 132253Z 22010KT 18/M03 A3001 RMK A01 T01751032  RH  024%=      5-min Rain = 0
KMD1 132254Z 22008KT 18/M03 A3001 RMK A01 T01751030  RH  025%=      5-min Rain = 0
KMD1 132255Z 21010KT 18/M03 A3001 RMK A01 T01751025  RH  025%=      5-min Rain = 0
KMD1 132256Z 22010KT 17/M03 A3001 RMK A01 T01741026  RH  025%=      5-min Rain = 0
KMD1 132257Z 21010KT 17/M03 A3001 RMK A01 T01741027  RH  025%=      5-min Rain = 0
KMD1 132258Z 22010KT 17/M03 A3001 RMK A01 T01731027  RH  025%=      5-min Rain = 0
KMD1 132259Z 22009KT 17/M03 A3001 RMK A01 T01731027  RH  025%=      5-min Rain = 0
KMD1 132300Z 22011KT 17/M03 A3001 RMK A01 T01731026  RH  026%=      5-min Rain = 0
KMD1 132301Z 21010KT 17/M03 A3001 RMK A01 T01721026  RH  026%=      5-min Rain = 0
KMD1 132302Z 21008KT 17/M03 A3001 RMK A01 T01721026  RH  026%=      5-min Rain = 0
KMD1 132303Z 21006KT 17/M03 A3001 RMK A01 T01721025  RH  026%=      5-min Rain = 0
KMD1 132304Z 21006KT 17/M02 A3001 RMK A01 T01711021  RH  027%=      5-min Rain = 0
KMD1 132305Z 21006KT 17/M02 A3001 RMK A01 T01711019  RH  027%=      5-min Rain = 0
KMD1 132306Z 22009KT 17/M02 A3001 RMK A01 T01701021  RH  027%=      5-min Rain = 0
KMD1 132307Z 22008KT 17/M02 A3001 RMK A01 T01691020  RH  027%=      5-min Rain = 0
KMD1 132308Z 22010KT 17/M03 A3001 RMK A01 T01691025  RH  027%=      5-min Rain = 0
KMD1 132309Z 22009KT 17/M02 A3001 RMK A01 T01691024  RH  027%=      5-min Rain = 0
KMD1 132310Z 22009KT 17/M03 A3001 RMK A01 T01691026  RH  026%=      5-min Rain = 0
KMD1 132311Z 22010KT 17/M03 A3001 RMK A01 T01681029  RH  026%=      5-min Rain = 0
KMD1 132312Z 23011KT 17/M04 A3001 RMK A01 T01681035  RH  025%=      5-min Rain = 0
KMD1 132313Z 23008KT 17/M03 A3001 RMK A01 T01681031  RH  025%=      5-min Rain = 0
KMD1 132314Z 23008KT 17/M03 A3001 RMK A01 T01681028  RH  026%=      5-min Rain = 0
KMD1 132315Z 23009KT 17/M03 A3001 RMK A01 T01681029  RH  026%=      5-min Rain = 0
KMD1 132316Z 23010KT 17/M03 A3001 RMK A01 T01671029  RH  026%=      5-min Rain = 0
KMD1 132317Z 23010KT 17/M03 A30 RMK A01 T01671031  RH  026%=      5-min Rain = 0
KMD1 132318Z 22011KT 17/M03 A30 RMK A01 T01671033  RH  025%=      5-min Rain = 0
KMD1 132319Z 23011KT 17/M03 A30 RMK A01 T01661030  RH  026%=      5-min Rain = 0
KMD1 132320Z 22011KT 17/M03 A30 RMK A01 T01661034  RH  025%=      5-min Rain = 0
KMD1 132321Z 22009KT 17/M03 A30 RMK A01 T01651031  RH  026%=      5-min Rain = 0
KMD1 132322Z 22009KT 16/M03 A30 RMK A01 T01641029  RH  027%=      5-min Rain = 0
KMD1 132323Z 22010KT 16/M03 A30 RMK A01 T01631029  RH  027%=      5-min Rain = 0
KMD1 132324Z 22009KT 16/M03 A30 RMK A01 T01631030  RH  026%=      5-min Rain = 0
KMD1 132325Z 21008KT 16/M03 A30 RMK A01 T01621028  RH  027%=      5-min Rain = 0
KMD1 132326Z 20009KT 16/M03 A30 RMK A01 T01621029  RH  027%=      5-min Rain = 0
KMD1 132327Z 21010KT 16/M03 A30 RMK A01 T01611030  RH  027%=      5-min Rain = 0
KMD1 132328Z 20009KT 16/M03 A30 RMK A01 T01611027  RH  027%=      5-min Rain = 0
KMD1 132329Z 20009KT 16/M03 A30 RMK A01 T01601028  RH  028%=      5-min Rain = 0
KMD1 132330Z 21009KT 16/M03 A30 RMK A01 T01581028  RH  028%=      5-min Rain = 0
KMD1 132331Z 21008KT 16/M03 A30 RMK A01 T01581028  RH  028%=      5-min Rain = 0
KMD1 132332Z 21009KT 16/M03 A30 RMK A01 T01581025  RH  028%=      5-min Rain = 0
KMD1 132333Z 22008KT 16/M03 A30 RMK A01 T01561025  RH  029%=      5-min Rain = 0
KMD1 132334Z 22009KT 16/M03 A30 RMK A01 T01561025  RH  029%=      5-min Rain = 0
KMD1 132335Z 23009KT 16/M03 A30 RMK A01 T01561027  RH  028%=      5-min Rain = 0
KMD1 132336Z 22009KT 16/M03 A30 RMK A01 T01561026  RH  029%=      5-min Rain = 0
KMD1 132337Z 22009KT 16/M02 A30 RMK A01 T01551024  RH  029%=      5-min Rain = 0
KMD1 132338Z 22008KT 16/M02 A30 RMK A01 T01551023  RH  029%=      5-min Rain = 0
KMD1 132339Z 22008KT 15/M02 A30 RMK A01 T01541021  RH  030%=      5-min Rain = 0
KMD1 132340Z 22009KT 15/M02 A30 RMK A01 T01521021  RH  030%=      5-min Rain = 0
KMD1 132341Z 22009KT 15/M02 A30 RMK A01 T01511021  RH  031%=      5-min Rain = 0
KMD1 132342Z 22009KT 15/M02 A30 RMK A01 T01501020  RH  031%=      5-min Rain = 0
KMD1 132343Z 22009KT 15/M02 A30 RMK A01 T01491019  RH  032%=      5-min Rain = 0
KMD1 132344Z 22008KT 15/M02 A30 RMK A01 T01481019  RH  032%=      5-min Rain = 0
KMD1 132345Z 22008KT 15/M02 A30 RMK A01 T01471018  RH  032%=      5-min Rain = 0
KMD1 132346Z 22007KT 15/M02 A30 RMK A01 T01451017  RH  033%=      5-min Rain = 0
KMD1 132347Z 22008KT 14/M02 A30 RMK A01 T01441017  RH  033%=      5-min Rain = 0
KMD1 132348Z 23007KT 14/M02 A30 RMK A01 T01441018  RH  033%=      5-min Rain = 0
KMD1 132349Z 23007KT 14/M02 A30 RMK A01 T01431017  RH  033%=      5-min Rain = 0
KMD1 132350Z 23007KT 14/M02 A30 RMK A01 T01431016  RH  033%=      5-min Rain = 0
KMD1 132351Z 23008KT 14/M02 A30 RMK A01 T01421018  RH  033%=      5-min Rain = 0
KMD1 132352Z 23007KT 14/M02 A30 RMK A01 T01421018  RH  033%=      5-min Rain = 0
KMD1 132353Z 22008KT 14/M02 A30 RMK A01 T01421018  RH  033%=      5-min Rain = 0
KMD1 132354Z 22008KT 14/M02 A30 RMK A01 T01431017  RH  033%=      5-min Rain = 0
KMD1 132355Z 22008KT 14/M02 A30 RMK A01 T01421017  RH  033%=      5-min Rain = 0
KMD1 132356Z 22008KT 14/M02 A30 RMK A01 T01411015  RH  034%=      5-min Rain = 0
KMD1 132357Z 22008KT 14/M02 A30 RMK A01 T01391015  RH  034%=      5-min Rain = 0
KMD1 132358Z 22008KT 14/M01 A30 RMK A01 T01371014  RH  035%=      5-min Rain = 0
KMD1 132359Z 22008KT 14/M01 A30 RMK A01 T01351014  RH  036%=      5-min Rain = 0
KMD1 140000Z 23009KT 13/M02 A30 RMK A01 T01341015  RH  036%=      5-min Rain = 0
KMD1 140001Z 22008KT 14/M02 A30 RMK A01 T01351015  RH  035%=      5-min Rain = 0
KMD1 140002Z 22009KT 14/M02 A30 RMK A01 T01351015  RH  035%=      5-min Rain = 0
KMD1 140003Z 22008KT 14/M01 A30 RMK A01 T01361014  RH  036%=      5-min Rain = 0
KMD1 140004Z 22009KT 14/M01 A30 RMK A01 T01351014  RH  036%=      5-min Rain = 0
KMD1 140005Z 22008KT 14/M01 A30 RMK A01 T01351013  RH  036%=      5-min Rain = 0
KMD1 140006Z 22008KT 13/M01 A30 RMK A01 T01341013  RH  036%=      5-min Rain = 0
KMD1 140007Z 22008KT 13/M01 A30 RMK A01 T01331013  RH  036%=      5-min Rain = 0
KMD1 140008Z 21007KT 13/M01 A30 RMK A01 T01321012  RH  037%=      5-min Rain = 0
KMD1 140009Z 22006KT 13/M01 A30 RMK A01 T01311012  RH  037%=      5-min Rain = 0
KMD1 140010Z 22007KT 13/M01 A30 RMK A01 T01291012  RH  038%=      5-min Rain = 0
KMD1 140011Z 22006KT 13/M01 A30 RMK A01 T01271013  RH  038%=      5-min Rain = 0
KMD1 140012Z 22007KT 13/M01 A30 RMK A01 T01271014  RH  038%=      5-min Rain = 0
KMD1 140013Z 22006KT 13/M02 A30 RMK A01 T01271015  RH  038%=      5-min Rain = 0
KMD1 140014Z 22006KT 13/M02 A30 RMK A01 T01261016  RH  037%=      5-min Rain = 0
KMD1 140015Z 22007KT 13/M02 A30 RMK A01 T01261016  RH  037%=      5-min Rain = 0
KMD1 140016Z 22006KT 13/M02 A30 RMK A01 T01261015  RH  037%=      5-min Rain = 0
KMD1 140017Z 21006KT 13/M01 A30 RMK A01 T01251013  RH  038%=      5-min Rain = 0
KMD1 140018Z 21006KT 12/M01 A30 RMK A01 T01231012  RH  039%=      5-min Rain = 0
KMD1 140019Z 21006KT 12/M01 A30 RMK A01 T01221013  RH  039%=      5-min Rain = 0
KMD1 140020Z 20006KT 12/M01 A30 RMK A01 T01221014  RH  039%=      5-min Rain = 0
KMD1 140021Z 20005KT 12/M01 A30 RMK A01 T01211014  RH  039%=      5-min Rain = 0
KMD1 140022Z 20006KT 12/M02 A30 RMK A01 T01201015  RH  039%=      5-min Rain = 0
KMD1 140023Z 20005KT 12/M02 A30 RMK A01 T01181015  RH  040%=      5-min Rain = 0
KMD1 140024Z 20005KT 12/M01 A2999 RMK A01 T01171014  RH  040%=      5-min Rain = 0
KMD1 140025Z 19005KT 12/M01 A2999 RMK A01 T01171013  RH  040%=      5-min Rain = 0
KMD1 140026Z 19005KT 12/M01 A2999 RMK A01 T01161013  RH  041%=      5-min Rain = 0
KMD1 140027Z 20005KT 12/M01 A2999 RMK A01 T01151013  RH  041%=      5-min Rain = 0
KMD1 140028Z 20005KT 12/M01 A2999 RMK A01 T01151013  RH  041%=      5-min Rain = 0
KMD1 140029Z 19005KT 11/M01 A2999 RMK A01 T01141014  RH  041%=      5-min Rain = 0
KMD1 140030Z 19005KT 11/M01 A2999 RMK A01 T01141014  RH  041%=      5-min Rain = 0
KMD1 140031Z 19005KT 11/M02 A2999 RMK A01 T01141015  RH  041%=      5-min Rain = 0
KMD1 140032Z 19005KT 11/M01 A2999 RMK A01 T01131014  RH  041%=      5-min Rain = 0
KMD1 140033Z 19005KT 11/M01 A2999 RMK A01 T01131014  RH  041%=      5-min Rain = 0
KMD1 140034Z 19005KT 11/M02 A2999 RMK A01 T01131015  RH  041%=      5-min Rain = 0
KMD1 140035Z 19005KT 11/M02 A2999 RMK A01 T01121015  RH  041%=      5-min Rain = 0
KMD1 140036Z 19006KT 11/M02 A2999 RMK A01 T01111015  RH  042%=      5-min Rain = 0
KMD1 140037Z 19006KT 11/M01 A2999 RMK A01 T01111014  RH  042%=      5-min Rain = 0
KMD1 140038Z 19006KT 11/M01 A2999 RMK A01 T01101014  RH  042%=      5-min Rain = 0
KMD1 140039Z 19006KT 11/M01 A2999 RMK A01 T01091014  RH  043%=      5-min Rain = 0
KMD1 140040Z 19007KT 11/M01 A2999 RMK A01 T01071013  RH  043%=      5-min Rain = 0
KMD1 140041Z 19006KT 11/M01 A2999 RMK A01 T01061013  RH  043%=      5-min Rain = 0
KMD1 140042Z 19006KT 11/M01 A2998 RMK A01 T01061013  RH  044%=      5-min Rain = 0
KMD1 140043Z 20006KT 11/M01 A2998 RMK A01 T01051013  RH  044%=      5-min Rain = 0
KMD1 140044Z 20006KT 11/M01 A2998 RMK A01 T01051012  RH  044%=      5-min Rain = 0
KMD1 140045Z 20006KT 11/M01 A2998 RMK A01 T01051012  RH  044%=      5-min Rain = 0
KMD1 140046Z 20005KT 10/M01 A2998 RMK A01 T01041012  RH  044%=      5-min Rain = 0
KMD1 140047Z 20005KT 10/M01 A2998 RMK A01 T01041013  RH  044%=      5-min Rain = 0
KMD1 140048Z 20006KT 10/M01 A2998 RMK A01 T01031013  RH  044%=      5-min Rain = 0
KMD1 140049Z 20006KT 10/M01 A2998 RMK A01 T01021013  RH  044%=      5-min Rain = 0
KMD1 140050Z 21007KT 10/M01 A2998 RMK A01 T01011013  RH  045%=      5-min Rain = 0
KMD1 140051Z 20006KT 10/M01 A2998 RMK A01 T01011012  RH  045%=      5-min Rain = 0
KMD1 140052Z 20006KT 10/M01 A2998 RMK A01 T01001013  RH  046%=      5-min Rain = 0
KMD1 140053Z 20006KT 10/M01 A2998 RMK A01 T01001012  RH  046%=      5-min Rain = 0
KMD1 140054Z 20007KT 10/M01 A2998 RMK A01 T00991012  RH  046%=      5-min Rain = 0
KMD1 140055Z 19006KT 10/M01 A2998 RMK A01 T00991012  RH  046%=      5-min Rain = 0
KMD1 140056Z 20006KT 10/M01 A2998 RMK A01 T00981012  RH  046%=      5-min Rain = 0
KMD1 140057Z 19006KT 10/M01 A2998 RMK A01 T00971012  RH  047%=      5-min Rain = 0
KMD1 140058Z 20005KT 10/M01 A2998 RMK A01 T00961012  RH  047%=      5-min Rain = 0
KMD1 140059Z 20006KT 10/M01 A2998 RMK A01 T00951011  RH  047%=      5-min Rain = 0
KMD1 140100Z 20006KT 10/M01 A2998 RMK A01 T00951012  RH  047%=      5-min Rain = 0
KMD1 140101Z 20005KT 10/M01 A2998 RMK A01 T00961011  RH  047%=      5-min Rain = 0
KMD1 140102Z 20006KT 10/M01 A2998 RMK A01 T00961010  RH  047%=      5-min Rain = 0
KMD1 140103Z 20007KT 10/M01 A2998 RMK A01 T00961010  RH  048%=      5-min Rain = 0
KMD1 140104Z 20006KT 10/M01 A2998 RMK A01 T00951010  RH  048%=      5-min Rain = 0
KMD1 140105Z 20006KT 10/M01 A2998 RMK A01 T00951009  RH  048%=      5-min Rain = 0
KMD1 140106Z 21006KT 09/M01 A2998 RMK A01 T00941009  RH  048%=      5-min Rain = 0
KMD1 140107Z 21007KT 10/M01 A2998 RMK A01 T00951009  RH  048%=      5-min Rain = 0
KMD1 140108Z 20007KT 10/M01 A2998 RMK A01 T00951009  RH  048%=      5-min Rain = 0
KMD1 140109Z 21006KT 10/M01 A2998 RMK A01 T00951009  RH  048%=      5-min Rain = 0
KMD1 140110Z 20007KT 10/M01 A2998 RMK A01 T00951008  RH  049%=      5-min Rain = 0
KMD1 140111Z 20007KT 10/M01 A2998 RMK A01 T00951008  RH  049%=      5-min Rain = 0
KMD1 140112Z 20007KT 10/M01 A2998 RMK A01 T00951008  RH  049%=      5-min Rain = 0
KMD1 140113Z 20008KT 09/M01 A2998 RMK A01 T00941007  RH  049%=      5-min Rain = 0
KMD1 140114Z 20007KT 09/M01 A2998 RMK A01 T00941007  RH  049%=      5-min Rain = 0
KMD1 140115Z 20008KT 09/M01 A2998 RMK A01 T00941007  RH  049%=      5-min Rain = 0
KMD1 140116Z 20007KT 09/M01 A2998 RMK A01 T00941008  RH  049%=      5-min Rain = 0
KMD1 140117Z 20008KT 10/M01 A2998 RMK A01 T00951007  RH  049%=      5-min Rain = 0
KMD1 140118Z 20008KT 10/M01 A2998 RMK A01 T00951007  RH  049%=      5-min Rain = 0
KMD1 140119Z 21007KT 10/M01 A2998 RMK A01 T00951007  RH  049%=      5-min Rain = 0
KMD1 140120Z 21007KT 10/M01 A2998 RMK A01 T00951006  RH  049%=      5-min Rain = 0
KMD1 140121Z 21006KT 10/M01 A2998 RMK A01 T00951006  RH  049%=      5-min Rain = 0
KMD1 140122Z 21006KT 10/M01 A2998 RMK A01 T00951006  RH  049%=      5-min Rain = 0
KMD1 140123Z 22005KT 10/M01 A2998 RMK A01 T00951007  RH  049%=      5-min Rain = 0
KMD1 140124Z 22006KT 10/M01 A2998 RMK A01 T00951006  RH  049%=      5-min Rain = 0
KMD1 140125Z 22005KT 10/M01 A2998 RMK A01 T00951005  RH  050%=      5-min Rain = 0
KMD1 140126Z 22005KT 10/M01 A2998 RMK A01 T00951006  RH  049%=      5-min Rain = 0
KMD1 140127Z 23005KT 09/M01 A2998 RMK A01 T00941007  RH  049%=      5-min Rain = 0
KMD1 140128Z 23005KT 10/M01 A2999 RMK A01 T00951007  RH  049%=      5-min Rain = 0
KMD1 140129Z 23005KT 10/M01 A2999 RMK A01 T00971007  RH  048%=      5-min Rain = 0
KMD1 140130Z 23005KT 10/M01 A2999 RMK A01 T00961006  RH  049%=      5-min Rain = 0
KMD1 140131Z 24005KT 10/M01 A2999 RMK A01 T00961006  RH  049%=      5-min Rain = 0
KMD1 140132Z 24005KT 10/M00 A2999 RMK A01 T00951004  RH  050%=      5-min Rain = 0
KMD1 140133Z 25006KT 09/M00 A2999 RMK A01 T00941003  RH  051%=      5-min Rain = 0
KMD1 140134Z 26005KT 09/M00 A2999 RMK A01 T00931003  RH  051%=      5-min Rain = 0
KMD1 140135Z 26005KT 09/M00 A2999 RMK A01 T00921002  RH  052%=      5-min Rain = 0
KMD1 140136Z 26005KT 09/M00 A2999 RMK A01 T00911003  RH  052%=      5-min Rain = 0
KMD1 140137Z 26005KT 09/M00 A2999 RMK A01 T00911003  RH  052%=      5-min Rain = 0
KMD1 140138Z 26005KT 09/M00 A2999 RMK A01 T00921004  RH  051%=      5-min Rain = 0
KMD1 140139Z 26005KT 09/M00 A2999 RMK A01 T00931004  RH  050%=      5-min Rain = 0
KMD1 140140Z 26005KT 09/M01 A2999 RMK A01 T00941005  RH  050%=      5-min Rain = 0
KMD1 140141Z 26005KT 09/M01 A2999 RMK A01 T00941005  RH  050%=      5-min Rain = 0
KMD1 140142Z 25005KT 09/M00 A2999 RMK A01 T00941004  RH  050%=      5-min Rain = 0
KMD1 140143Z 25005KT 09/M00 A2999 RMK A01 T00941004  RH  050%=      5-min Rain = 0
KMD1 140144Z 25005KT 09/M01 A2999 RMK A01 T00941005  RH  050%=      5-min Rain = 0
KMD1 140145Z 25006KT 09/M01 A2999 RMK A01 T00941005  RH  050%=      5-min Rain = 0
KMD1 140146Z 24005KT 09/M01 A2999 RMK A01 T00941006  RH  050%=      5-min Rain = 0
KMD1 140147Z 24005KT 09/M01 A2999 RMK A01 T00941006  RH  050%=      5-min Rain = 0
KMD1 140148Z 23005KT 09/M01 A2999 RMK A01 T00941005  RH  050%=      5-min Rain = 0
KMD1 140149Z 23005KT 09/M01 A2998 RMK A01 T00941005  RH  050%=      5-min Rain = 0
KMD1 140150Z 23005KT 09/M01 A2998 RMK A01 T00931006  RH  050%=      5-min Rain = 0
KMD1 140151Z 23005KT 09/M01 A2998 RMK A01 T00931006  RH  050%=      5-min Rain = 0
KMD1 140152Z 23005KT 09/M01 A2998 RMK A01 T00921005  RH  051%=      5-min Rain = 0
KMD1 140153Z 23005KT 09/M01 A2998 RMK A01 T00901006  RH  051%=      5-min Rain = 0
KMD1 140154Z 22005KT 09/M01 A2998 RMK A01 T00881006  RH  052%=      5-min Rain = 0
KMD1 140155Z 23005KT 09/M01 A2998 RMK A01 T00871006  RH  052%=      5-min Rain = 0
KMD1 140156Z 22004KT 09/M01 A2998 RMK A01 T00851005  RH  053%=      5-min Rain = 0
KMD1 140157Z 22003KT 08/M01 A2998 RMK A01 T00821006  RH  054%=      5-min Rain = 0
KMD1 140158Z 22003KT 08/M01 A2998 RMK A01 T00791008  RH  054%=      5-min Rain = 0
KMD1 140159Z 21003KT 08/M01 A2997 RMK A01 T00771010  RH  054%=      5-min Rain = 0
KMD1 140200Z 21003KT 08/M01 A2997 RMK A01 T00761010  RH  054%=      5-min Rain = 0
KMD1 140201Z 21002KT 08/M01 A2997 RMK A01 T00761010  RH  055%=      5-min Rain = 0
KMD1 140202Z 21002KT 08/M01 A2997 RMK A01 T00761009  RH  055%=      5-min Rain = 0
KMD1 140203Z 22002KT 08/M01 A2997 RMK A01 T00761010  RH  055%=      5-min Rain = 0
KMD1 140204Z 23002KT 08/M01 A2997 RMK A01 T00761010  RH  055%=      5-min Rain = 0
KMD1 140205Z 25001KT 08/M01 A2997 RMK A01 T00761009  RH  055%=      5-min Rain = 0
KMD1 140206Z 26001KT 07/M01 A2997 RMK A01 T00731009  RH  056%=      5-min Rain = 0
KMD1 140207Z 27002KT 07/M01 A2997 RMK A01 T00701008  RH  057%=      5-min Rain = 0
KMD1 140208Z 27002KT 07/M01 A2998 RMK A01 T00701007  RH  058%=      5-min Rain = 0
KMD1 140209Z 26003KT 07/M01 A2998 RMK A01 T00731006  RH  058%=      5-min Rain = 0
KMD1 140210Z 27003KT 07/M01 A2998 RMK A01 T00741006  RH  057%=      5-min Rain = 0
KMD1 140211Z 26004KT 07/M01 A2998 RMK A01 T00731007  RH  057%=      5-min Rain = 0
KMD1 140212Z 26004KT 07/M01 A2998 RMK A01 T00731007  RH  057%=      5-min Rain = 0
KMD1 140213Z 26004KT 07/M01 A2998 RMK A01 T00721007  RH  057%=      5-min Rain = 0
KMD1 140214Z 26005KT 07/M01 A2998 RMK A01 T00721006  RH  057%=      5-min Rain = 0
KMD1 140215Z 26004KT 07/M01 A2998 RMK A01 T00731006  RH  057%=      5-min Rain = 0
KMD1 140216Z 26004KT 08/M01 A2998 RMK A01 T00751006  RH  056%=      5-min Rain = 0
KMD1 140217Z 26005KT 08/M01 A2998 RMK A01 T00761006  RH  056%=      5-min Rain = 0
KMD1 140218Z 27005KT 08/M01 A2998 RMK A01 T00771006  RH  056%=      5-min Rain = 0
KMD1 140219Z 26006KT 08/M01 A2998 RMK A01 T00771005  RH  056%=      5-min Rain = 0
KMD1 140220Z 26005KT 08/M01 A2998 RMK A01 T00781007  RH  055%=      5-min Rain = 0
KMD1 140221Z 26005KT 08/M01 A2998 RMK A01 T00801007  RH  054%=      5-min Rain = 0
KMD1 140222Z 26006KT 08/M01 A2998 RMK A01 T00811008  RH  053%=      5-min Rain = 0
KMD1 140223Z 26005KT 08/M01 A2999 RMK A01 T00831008  RH  053%=      5-min Rain = 0
KMD1 140224Z 27005KT 08/M01 A2998 RMK A01 T00841008  RH  053%=      5-min Rain = 0
KMD1 140225Z 26005KT 08/M01 A2998 RMK A01 T00821006  RH  054%=      5-min Rain = 0
KMD1 140226Z 26005KT 08/M01 A2998 RMK A01 T00811007  RH  054%=      5-min Rain = 0
KMD1 140227Z 25005KT 08/M01 A2998 RMK A01 T00811008  RH  053%=      5-min Rain = 0
KMD1 140228Z 25005KT 08/M01 A2998 RMK A01 T00821008  RH  053%=      5-min Rain = 0
KMD1 140229Z 24006KT 08/M01 A2998 RMK A01 T00821008  RH  053%=      5-min Rain = 0
KMD1 140230Z 24007KT 08/M01 A2998 RMK A01 T00821008  RH  053%=      5-min Rain = 0
KMD1 140231Z 24006KT 08/M01 A2998 RMK A01 T00821009  RH  053%=      5-min Rain = 0
KMD1 140232Z 24006KT 08/M01 A2998 RMK A01 T00811009  RH  053%=      5-min Rain = 0
KMD1 140233Z 23006KT 08/M01 A2998 RMK A01 T00791009  RH  054%=      5-min Rain = 0
KMD1 140234Z 23007KT 08/M01 A2998 RMK A01 T00781008  RH  054%=      5-min Rain = 0
KMD1 140235Z 23007KT 08/M01 A2998 RMK A01 T00761009  RH  055%=      5-min Rain = 0
KMD1 140236Z 23007KT 08/M01 A2998 RMK A01 T00761009  RH  055%=      5-min Rain = 0
KMD1 140237Z 23006KT 08/M01 A2998 RMK A01 T00761009  RH  055%=      5-min Rain = 0
KMD1 140238Z 23006KT 08/M01 A2998 RMK A01 T00771010  RH  054%=      5-min Rain = 0
KMD1 140239Z 23006KT 08/M01 A2998 RMK A01 T00771010  RH  054%=      5-min Rain = 0
KMD1 140240Z 24005KT 08/M01 A2998 RMK A01 T00771009  RH  054%=      5-min Rain = 0
KMD1 140241Z 24005KT 07/M01 A2998 RMK A01 T00741008  RH  056%=      5-min Rain = 0
KMD1 140242Z 25005KT 07/M01 A2998 RMK A01 T00691008  RH  058%=      5-min Rain = 0
KMD1 140243Z 25005KT 07/M01 A2998 RMK A01 T00661008  RH  059%=      5-min Rain = 0
KMD1 140244Z 25005KT 07/M01 A2998 RMK A01 T00671009  RH  059%=      5-min Rain = 0
KMD1 140245Z 25005KT 07/M01 A2998 RMK A01 T00681009  RH  058%=      5-min Rain = 0
KMD1 140246Z 25005KT 07/M01 A2998 RMK A01 T00701010  RH  057%=      5-min Rain = 0
KMD1 140247Z 25005KT 07/M01 A2998 RMK A01 T00721010  RH  056%=      5-min Rain = 0
KMD1 140248Z 26005KT 07/M01 A2998 RMK A01 T00741011  RH  055%=      5-min Rain = 0
KMD1 140249Z 25005KT 08/M01 A2998 RMK A01 T00761010  RH  054%=      5-min Rain = 0
KMD1 140250Z 26005KT 08/M01 A2998 RMK A01 T00761011  RH  054%=      5-min Rain = 0
KMD1 140251Z 26005KT 08/M01 A2998 RMK A01 T00771010  RH  054%=      5-min Rain = 0
KMD1 140252Z 26005KT 08/M01 A2998 RMK A01 T00751010  RH  055%=      5-min Rain = 0
KMD1 140253Z 26005KT 08/M01 A2998 RMK A01 T00751010  RH  055%=      5-min Rain = 0
KMD1 140254Z 26005KT 08/M01 A2998 RMK A01 T00751010  RH  055%=      5-min Rain = 0
KMD1 140255Z 26004KT 07/M01 A2998 RMK A01 T00731011  RH  055%=      5-min Rain = 0
KMD1 140256Z 26004KT 07/M01 A2998 RMK A01 T00721011  RH  056%=      5-min Rain = 0
KMD1 140257Z 26004KT 07/M01 A2998 RMK A01 T00711012  RH  056%=      5-min Rain = 0
KMD1 140258Z 26004KT 07/M01 A2998 RMK A01 T00731012  RH  055%=      5-min Rain = 0
KMD1 140259Z 26005KT 08/M01 A2998 RMK A01 T00751012  RH  054%=      5-min Rain = 0
KMD1 140300Z 26005KT 08/M01 A2998 RMK A01 T00761013  RH  054%=      5-min Rain = 0
KMD1 140301Z 26005KT 08/M01 A2998 RMK A01 T00761013  RH  053%=      5-min Rain = 0
KMD1 140302Z 25005KT 08/M01 A2998 RMK A01 T00761013  RH  053%=      5-min Rain = 0
KMD1 140303Z 25005KT 08/M01 A2998 RMK A01 T00761013  RH  053%=      5-min Rain = 0
KMD1 140304Z 25005KT 08/M01 A2998 RMK A01 T00771013  RH  053%=      5-min Rain = 0
KMD1 140305Z 25005KT 08/M01 A2998 RMK A01 T00771013  RH  053%=      5-min Rain = 0
KMD1 140306Z 25005KT 08/M01 A2998 RMK A01 T00771013  RH  053%=      5-min Rain = 0
KMD1 140307Z 25005KT 08/M01 A2998 RMK A01 T00761012  RH  053%=      5-min Rain = 0
KMD1 140308Z 25005KT 07/M01 A2998 RMK A01 T00741013  RH  054%=      5-min Rain = 0
KMD1 140309Z 25005KT 07/M01 A2998 RMK A01 T00731013  RH  054%=      5-min Rain = 0
KMD1 140310Z 25005KT 07/M01 A2998 RMK A01 T00731013  RH  054%=      5-min Rain = 0
KMD1 140311Z 25005KT 07/M01 A2998 RMK A01 T00721013  RH  055%=      5-min Rain = 0
KMD1 140312Z 24005KT 07/M01 A2998 RMK A01 T00701014  RH  055%=      5-min Rain = 0
KMD1 140313Z 24004KT 07/M01 A2998 RMK A01 T00681013  RH  056%=      5-min Rain = 0
KMD1 140314Z 24004KT 07/M01 A2998 RMK A01 T00661013  RH  057%=      5-min Rain = 0
KMD1 140315Z 23004KT 07/M01 A2998 RMK A01 T00651012  RH  058%=      5-min Rain = 0
KMD1 140316Z 23004KT 06/M01 A2998 RMK A01 T00641012  RH  058%=      5-min Rain = 0
KMD1 140317Z 23004KT 06/M01 A2998 RMK A01 T00631013  RH  058%=      5-min Rain = 0
KMD1 140318Z 23004KT 06/M01 A2997 RMK A01 T00621013  RH  058%=      5-min Rain = 0
KMD1 140319Z 23005KT 06/M01 A2997 RMK A01 T00621013  RH  059%=      5-min Rain = 0
KMD1 140320Z 24004KT 06/M01 A2997 RMK A01 T00601014  RH  059%=      5-min Rain = 0
KMD1 140321Z 24004KT 06/M01 A2997 RMK A01 T00601013  RH  059%=      5-min Rain = 0
KMD1 140322Z 24004KT 06/M01 A2997 RMK A01 T00601014  RH  059%=      5-min Rain = 0
KMD1 140323Z 25004KT 06/M02 A2997 RMK A01 T00621015  RH  058%=      5-min Rain = 0
KMD1 140324Z 25004KT 06/M02 A2998 RMK A01 T00621016  RH  057%=      5-min Rain = 0
KMD1 140325Z 25005KT 06/M02 A2998 RMK A01 T00631017  RH  056%=      5-min Rain = 0
KMD1 140326Z 25005KT 07/M02 A2998 RMK A01 T00661017  RH  055%=      5-min Rain = 0
KMD1 140327Z 26005KT 07/M02 A2998 RMK A01 T00691018  RH  054%=      5-min Rain = 0
KMD1 140328Z 26004KT 07/M02 A2998 RMK A01 T00721019  RH  053%=      5-min Rain = 0
KMD1 140329Z 25005KT 07/M02 A2998 RMK A01 T00741020  RH  051%=      5-min Rain = 0
KMD1 140330Z 25006KT 08/M02 A2998 RMK A01 T00761020  RH  051%=      5-min Rain = 0
KMD1 140331Z 25007KT 08/M02 A2998 RMK A01 T00781020  RH  050%=      5-min Rain = 0
KMD1 140332Z 25006KT 08/M02 A2998 RMK A01 T00811020  RH  049%=      5-min Rain = 0
KMD1 140333Z 25006KT 08/M02 A2998 RMK A01 T00831020  RH  048%=      5-min Rain = 0
KMD1 140334Z 25007KT 08/M02 A2998 RMK A01 T00841021  RH  048%=      5-min Rain = 0
KMD1 140335Z 25006KT 09/M02 A2998 RMK A01 T00861021  RH  047%=      5-min Rain = 0
KMD1 140336Z 24006KT 09/M02 A2998 RMK A01 T00871020  RH  047%=      5-min Rain = 0
KMD1 140337Z 25006KT 09/M02 A2998 RMK A01 T00861021  RH  047%=      5-min Rain = 0
KMD1 140338Z 24007KT 09/M02 A2997 RMK A01 T00861020  RH  047%=      5-min Rain = 0
KMD1 140339Z 24008KT 09/M02 A2997 RMK A01 T00851021  RH  047%=      5-min Rain = 0
KMD1 140340Z 24006KT 09/M02 A2997 RMK A01 T00861021  RH  047%=      5-min Rain = 0
KMD1 140341Z 24007KT 09/M02 A2997 RMK A01 T00861021  RH  047%=      5-min Rain = 0
KMD1 140342Z 24007KT 09/M02 A2997 RMK A01 T00861020  RH  047%=      5-min Rain = 0
KMD1 140343Z 24006KT 08/M02 A2997 RMK A01 T00841020  RH  048%=      5-min Rain = 0
KMD1 140344Z 24007KT 08/M02 A2997 RMK A01 T00831020  RH  048%=      5-min Rain = 0
KMD1 140345Z 24006KT 08/M02 A2997 RMK A01 T00831020  RH  048%=      5-min Rain = 0
KMD1 140346Z 24006KT 08/M02 A2997 RMK A01 T00821020  RH  049%=      5-min Rain = 0
KMD1 140347Z 24006KT 08/M02 A2997 RMK A01 T00821020  RH  049%=      5-min Rain = 0
KMD1 140348Z 24006KT 08/M02 A2998 RMK A01 T00821021  RH  048%=      5-min Rain = 0
KMD1 140349Z 24006KT 08/M02 A2998 RMK A01 T00811021  RH  048%=      5-min Rain = 0
KMD1 140350Z 24006KT 08/M02 A2998 RMK A01 T00821021  RH  048%=      5-min Rain = 0
KMD1 140351Z 24006KT 08/M02 A2998 RMK A01 T00821021  RH  048%=      5-min Rain = 0
KMD1 140352Z 24005KT 08/M02 A2998 RMK A01 T00831021  RH  048%=      5-min Rain = 0
KMD1 140353Z 24006KT 08/M02 A2998 RMK A01 T00831021  RH  048%=      5-min Rain = 0
KMD1 140354Z 24005KT 08/M02 A2998 RMK A01 T00831022  RH  048%=      5-min Rain = 0
KMD1 140355Z 24006KT 08/M02 A2998 RMK A01 T00831022  RH  047%=      5-min Rain = 0
KMD1 140356Z 24006KT 08/M02 A2998 RMK A01 T00841023  RH  047%=      5-min Rain = 0
KMD1 140357Z 24005KT 09/M02 A2998 RMK A01 T00851023  RH  047%=      5-min Rain = 0
KMD1 140358Z 24005KT 09/M02 A2998 RMK A01 T00851023  RH  047%=      5-min Rain = 0
KMD1 140359Z 24004KT 09/M02 A2998 RMK A01 T00851022  RH  047%=      5-min Rain = 0
KMD1 140400Z 24004KT 08/M02 A2998 RMK A01 T00841022  RH  047%=      5-min Rain = 0
KMD1 140401Z 24005KT 08/M02 A2997 RMK A01 T00831022  RH  048%=      5-min Rain = 0
KMD1 140402Z 24005KT 08/M02 A2997 RMK A01 T00821023  RH  048%=      5-min Rain = 0
KMD1 140403Z 23005KT 08/M02 A2997 RMK A01 T00821024  RH  047%=      5-min Rain = 0
KMD1 140404Z 23005KT 09/M02 A2997 RMK A01 T00851024  RH  046%=      5-min Rain = 0
KMD1 140405Z 23003KT 09/M02 A2997 RMK A01 T00871023  RH  046%=      5-min Rain = 0
KMD1 140406Z 23004KT 09/M02 A2997 RMK A01 T00871024  RH  046%=      5-min Rain = 0
KMD1 140407Z 22004KT 09/M02 A2997 RMK A01 T00871024  RH  046%=      5-min Rain = 0
KMD1 140408Z 22004KT 09/M02 A2997 RMK A01 T00871024  RH  046%=      5-min Rain = 0
KMD1 140409Z 23004KT 09/M02 A2997 RMK A01 T00861024  RH  046%=      5-min Rain = 0
KMD1 140410Z 23005KT 09/M02 A2997 RMK A01 T00851024  RH  046%=      5-min Rain = 0
KMD1 140411Z 23005KT 09/M02 A2997 RMK A01 T00851024  RH  046%=      5-min Rain = 0
KMD1 140412Z 23005KT 09/M02 A2997 RMK A01 T00851024  RH  046%=      5-min Rain = 0
KMD1 140413Z 23005KT 09/M02 A2997 RMK A01 T00851024  RH  046%=      5-min Rain = 0
KMD1 140414Z 24004KT 09/M02 A2997 RMK A01 T00851023  RH  046%=      5-min Rain = 0
KMD1 140415Z 24004KT 09/M02 A2997 RMK A01 T00851024  RH  046%=      5-min Rain = 0
KMD1 140416Z 23004KT 08/M02 A2997 RMK A01 T00841024  RH  047%=      5-min Rain = 0
KMD1 140417Z 24004KT 08/M02 A2997 RMK A01 T00831024  RH  047%=      5-min Rain = 0
KMD1 140418Z 23005KT 08/M02 A2997 RMK A01 T00821024  RH  047%=      5-min Rain = 0
KMD1 140419Z 24005KT 08/M03 A2997 RMK A01 T00831025  RH  047%=      5-min Rain = 0
KMD1 140420Z 23004KT 09/M03 A2997 RMK A01 T00851025  RH  046%=      5-min Rain = 0
KMD1 140421Z 23004KT 09/M03 A2997 RMK A01 T00861025  RH  046%=      5-min Rain = 0
KMD1 140422Z 23005KT 09/M03 A2997 RMK A01 T00861025  RH  046%=      5-min Rain = 0
KMD1 140423Z 23004KT 09/M03 A2997 RMK A01 T00851025  RH  046%=      5-min Rain = 0
KMD1 140424Z 23004KT 08/M02 A2997 RMK A01 T00841024  RH  046%=      5-min Rain = 0
KMD1 140425Z 23003KT 08/M03 A2997 RMK A01 T00841025  RH  046%=      5-min Rain = 0
KMD1 140426Z 23004KT 09/M03 A2997 RMK A01 T00851025  RH  046%=      5-min Rain = 0
KMD1 140427Z 24005KT 09/M03 A2997 RMK A01 T00851025  RH  046%=      5-min Rain = 0
KMD1 140428Z 24004KT 09/M03 A2997 RMK A01 T00861025  RH  046%=      5-min Rain = 0
KMD1 140429Z 23005KT 09/M02 A2997 RMK A01 T00851024  RH  046%=      5-min Rain = 0
KMD1 140430Z 24006KT 08/M02 A2997 RMK A01 T00841024  RH  046%=      5-min Rain = 0
KMD1 140431Z 24006KT 09/M02 A2997 RMK A01 T00851024  RH  046%=      5-min Rain = 0
KMD1 140432Z 24005KT 09/M03 A2997 RMK A01 T00871025  RH  045%=      5-min Rain = 0
KMD1 140433Z 24005KT 09/M03 A2997 RMK A01 T00881025  RH  045%=      5-min Rain = 0
KMD1 140434Z 23005KT 09/M03 A2997 RMK A01 T00891025  RH  045%=      5-min Rain = 0
KMD1 140435Z 24004KT 09/M03 A2997 RMK A01 T00891025  RH  045%=      5-min Rain = 0
KMD1 140436Z 24005KT 09/M02 A2997 RMK A01 T00881024  RH  045%=      5-min Rain = 0
KMD1 140437Z 23005KT 09/M03 A2997 RMK A01 T00871025  RH  045%=      5-min Rain = 0
KMD1 140438Z 23006KT 09/M03 A2997 RMK A01 T00871027  RH  045%=      5-min Rain = 0
KMD1 140439Z 23005KT 09/M03 A2997 RMK A01 T00891027  RH  044%=      5-min Rain = 0
KMD1 140440Z 23005KT 09/M03 A2997 RMK A01 T00891027  RH  044%=      5-min Rain = 0
KMD1 140441Z 23004KT 09/M03 A2997 RMK A01 T00891027  RH  044%=      5-min Rain = 0
KMD1 140442Z 22005KT 09/M03 A2997 RMK A01 T00891027  RH  044%=      5-min Rain = 0
KMD1 140443Z 23005KT 09/M03 A2997 RMK A01 T00881028  RH  044%=      5-min Rain = 0
KMD1 140444Z 22005KT 09/M03 A2997 RMK A01 T00871029  RH  044%=      5-min Rain = 0
KMD1 140445Z 23005KT 09/M03 A2997 RMK A01 T00871028  RH  044%=      5-min Rain = 0
KMD1 140446Z 23006KT 09/M03 A2997 RMK A01 T00871028  RH  044%=      5-min Rain = 0
KMD1 140447Z 23006KT 09/M03 A2997 RMK A01 T00871028  RH  044%=      5-min Rain = 0
KMD1 140448Z 22007KT 09/M03 A2996 RMK A01 T00871028  RH  044%=      5-min Rain = 0
KMD1 140449Z 22006KT 09/M03 A2996 RMK A01 T00861027  RH  045%=      5-min Rain = 0
KMD1 140450Z 22007KT 09/M03 A2996 RMK A01 T00861028  RH  045%=      5-min Rain = 0
KMD1 140451Z 22007KT 09/M03 A2996 RMK A01 T00861028  RH  045%=      5-min Rain = 0
KMD1 140452Z 22007KT 09/M03 A2996 RMK A01 T00861027  RH  045%=      5-min Rain = 0
KMD1 140453Z 22007KT 09/M03 A2996 RMK A01 T00861027  RH  045%=      5-min Rain = 0
KMD1 140454Z 22007KT 09/M03 A2996 RMK A01 T00861027  RH  045%=      5-min Rain = 0
KMD1 140455Z 22006KT 09/M03 A2996 RMK A01 T00861027  RH  045%=      5-min Rain = 0
KMD1 140456Z 22007KT 09/M03 A2996 RMK A01 T00861027  RH  045%=      5-min Rain = 0
KMD1 140457Z 22009KT 09/M03 A2996 RMK A01 T00861028  RH  045%=      5-min Rain = 0
KMD1 140458Z 22008KT 09/M03 A2996 RMK A01 T00891027  RH  044%=      5-min Rain = 0
KMD1 140459Z 22009KT 09/M03 A2996 RMK A01 T00901026  RH  044%=      5-min Rain = 0
KMD1 140500Z 22009KT 09/M03 A2996 RMK A01 T00891026  RH  044%=      5-min Rain = 0
KMD1 140501Z 22007KT 09/M03 A2996 RMK A01 T00891026  RH  044%=      5-min Rain = 0
KMD1 140502Z 22008KT 09/M03 A2996 RMK A01 T00891025  RH  045%=      5-min Rain = 0
KMD1 140503Z 22007KT 09/M03 A2996 RMK A01 T00891026  RH  044%=      5-min Rain = 0
KMD1 140504Z 22007KT 09/M03 A2996 RMK A01 T00881025  RH  045%=      5-min Rain = 0
KMD1 140505Z 22008KT 09/M03 A2996 RMK A01 T00861025  RH  045%=      5-min Rain = 0
KMD1 140506Z 22010KT 09/M03 A2996 RMK A01 T00861027  RH  045%=      5-min Rain = 0
KMD1 140507Z 22008KT 09/M03 A2996 RMK A01 T00891027  RH  044%=      5-min Rain = 0
KMD1 140508Z 22007KT 09/M03 A2996 RMK A01 T00891028  RH  044%=      5-min Rain = 0
KMD1 140509Z 22007KT 09/M03 A2996 RMK A01 T00891027  RH  044%=      5-min Rain = 0
KMD1 140510Z 22007KT 09/M03 A2996 RMK A01 T00881027  RH  044%=      5-min Rain = 0
KMD1 140511Z 22007KT 09/M03 A2996 RMK A01 T00871028  RH  044%=      5-min Rain = 0
KMD1 140512Z 22007KT 09/M03 A2996 RMK A01 T00861028  RH  045%=      5-min Rain = 0
KMD1 140513Z 22007KT 08/M03 A2996 RMK A01 T00841028  RH  045%=      5-min Rain = 0
KMD1 140514Z 22006KT 08/M03 A2996 RMK A01 T00841028  RH  045%=      5-min Rain = 0
KMD1 140515Z 22007KT 08/M03 A2996 RMK A01 T00821028  RH  046%=      5-min Rain = 0
KMD1 140516Z 22007KT 08/M03 A2996 RMK A01 T00811030  RH  045%=      5-min Rain = 0
KMD1 140517Z 22006KT 08/M03 A2996 RMK A01 T00821029  RH  045%=      5-min Rain = 0
KMD1 140518Z 22007KT 08/M03 A2996 RMK A01 T00831029  RH  045%=      5-min Rain = 0
KMD1 140519Z 21007KT 08/M03 A2996 RMK A01 T00821030  RH  045%=      5-min Rain = 0
KMD1 140520Z 22006KT 08/M03 A2996 RMK A01 T00821030  RH  045%=      5-min Rain = 0
KMD1 140521Z 22005KT 08/M03 A2996 RMK A01 T00811029  RH  046%=      5-min Rain = 0
KMD1 140522Z 21006KT 08/M03 A2996 RMK A01 T00801029  RH  046%=      5-min Rain = 0
KMD1 140523Z 20006KT 08/M03 A2996 RMK A01 T00791030  RH  046%=      5-min Rain = 0
KMD1 140524Z 21006KT 08/M03 A2996 RMK A01 T00791032  RH  046%=      5-min Rain = 0
KMD1 140525Z 20006KT 08/M03 A2995 RMK A01 T00791032  RH  046%=      5-min Rain = 0
KMD1 140526Z 20006KT 08/M03 A2995 RMK A01 T00771031  RH  046%=      5-min Rain = 0
KMD1 140527Z 20006KT 08/M03 A2995 RMK A01 T00751031  RH  047%=      5-min Rain = 0
KMD1 140528Z 20006KT 08/M03 A2995 RMK A01 T00751032  RH  047%=      5-min Rain = 0
KMD1 140529Z 20005KT 07/M03 A2995 RMK A01 T00741031  RH  047%=      5-min Rain = 0
KMD1 140530Z 20006KT 07/M03 A2995 RMK A01 T00731031  RH  048%=      5-min Rain = 0
KMD1 140531Z 20005KT 07/M03 A2995 RMK A01 T00721031  RH  048%=      5-min Rain = 0
KMD1 140532Z 20006KT 07/M03 A2995 RMK A01 T00711031  RH  048%=      5-min Rain = 0
KMD1 140533Z 20006KT 07/M03 A2995 RMK A01 T00711030  RH  049%=      5-min Rain = 0
KMD1 140534Z 20006KT 07/M03 A2995 RMK A01 T00711030  RH  049%=      5-min Rain = 0
KMD1 140535Z 20006KT 07/M03 A2995 RMK A01 T00701030  RH  049%=      5-min Rain = 0
KMD1 140536Z 20006KT 07/M03 A2995 RMK A01 T00701029  RH  049%=      5-min Rain = 0
KMD1 140537Z 20005KT 07/M03 A2995 RMK A01 T00691029  RH  049%=      5-min Rain = 0
KMD1 140538Z 20006KT 07/M03 A2995 RMK A01 T00691029  RH  050%=      5-min Rain = 0
KMD1 140539Z 20006KT 07/M03 A2995 RMK A01 T00681028  RH  050%=      5-min Rain = 0
KMD1 140540Z 20006KT 07/M03 A2995 RMK A01 T00681029  RH  050%=      5-min Rain = 0
KMD1 140541Z 19005KT 07/M03 A2995 RMK A01 T00681028  RH  050%=      5-min Rain = 0
KMD1 140542Z 20006KT 07/M03 A2995 RMK A01 T00681027  RH  051%=      5-min Rain = 0
KMD1 140543Z 20005KT 07/M03 A2995 RMK A01 T00671027  RH  051%=      5-min Rain = 0
KMD1 140544Z 21005KT 07/M03 A2995 RMK A01 T00661026  RH  052%=      5-min Rain = 0
KMD1 140545Z 21004KT 06/M03 A2995 RMK A01 T00641025  RH  053%=      5-min Rain = 0
KMD1 140546Z 23003KT 06/M03 A2995 RMK A01 T00611027  RH  053%=      5-min Rain = 0
KMD1 140547Z 23003KT 06/M03 A2995 RMK A01 T00601029  RH  053%=      5-min Rain = 0
KMD1 140548Z 23003KT 06/M03 A2995 RMK A01 T00641029  RH  051%=      5-min Rain = 0
KMD1 140549Z 22003KT 07/M03 A2995 RMK A01 T00671029  RH  051%=      5-min Rain = 0
KMD1 140550Z 22003KT 07/M03 A2995 RMK A01 T00681029  RH  050%=      5-min Rain = 0
KMD1 140551Z 22004KT 07/M03 A2995 RMK A01 T00681029  RH  050%=      5-min Rain = 0
KMD1 140552Z 23003KT 07/M03 A2995 RMK A01 T00681028  RH  050%=      5-min Rain = 0
KMD1 140553Z 23004KT 07/M03 A2995 RMK A01 T00681028  RH  050%=      5-min Rain = 0
KMD1 140554Z 22004KT 07/M03 A2995 RMK A01 T00681026  RH  051%=      5-min Rain = 0
KMD1 140555Z 23003KT 07/M03 A2995 RMK A01 T00681026  RH  051%=      5-min Rain = 0
KMD1 140556Z 24006KT 07/M03 A2995 RMK A01 T00681026  RH  051%=      5-min Rain = 0
KMD1 140557Z 23004KT 07/M02 A2995 RMK A01 T00671024  RH  052%=      5-min Rain = 0
KMD1 140558Z 23004KT 07/M02 A2995 RMK A01 T00701024  RH  051%=      5-min Rain = 0
KMD1 140559Z 23003KT 07/M03 A2995 RMK A01 T00731025  RH  050%=      5-min Rain = 0

Page generated in 0.18 seconds.